M I D A S
Marine Information and Data Acquisition System
Tripno 2150 of the Zeeleeuw from 2011-07-25 06:42:10 to 2011-07-25 13:06:22
Back to CruiseResearch ActivitiesStationsMapUnderway DataData graphs

EquipmentUnitsComment
TimeDGPSUTC
LatitudeDGPSDM.mWGS84
LongitudeDGPSDM.mWGS84
TemperatureSBE03/SBE38deg celciusITS90
ConductivitySBE21S/mITS90
SalinitySBE21 Practical Salinity Units
ChlorophylAChelsea fluorimeterg/lCalibrated in Aceton
Missing or incorrect values are displayed as -999
Sea surface data collected by the RV Zeeleeuw from 2011-07-25 06:31:22 to 2011-07-25 13:19:12
                                                                                    Next 1000 lines
Time Latitude Longitude Temperature Conductivity Salinity ChlorophylA
2011-07-25 06:31:32 51°13.637 2°56.015 19.3355 0.01012 0.05614 -3.020363
2011-07-25 06:31:37 51°13.638 2°56.012 19.3392 0.01012 0.05614 -3.020363
2011-07-25 06:31:42 51°13.638 2°56.009 19.3424 0.01012 0.05614 -3.020363
2011-07-25 06:31:47 51°13.64 2°56.004 19.3455 0.01012 0.056141 -3.020363
2011-07-25 06:31:52 51°13.641 2°55.999 19.3428 0.01012 0.056142 -3.020363
2011-07-25 06:31:58 51°13.643 2°55.992 19.3534 0.01012 0.056142 -3.020363
2011-07-25 06:32:04 51°13.646 2°55.985 19.3542 0.01012 0.056142 -3.020363
2011-07-25 06:32:10 51°13.647 2°55.977 19.3587 0.01012 0.056142 -3.020363
2011-07-25 06:32:15 51°13.649 2°55.97 19.3561 0.01012 0.056143 -3.020363
2011-07-25 06:32:20 51°13.651 2°55.962 19.364 0.01012 0.056144 -3.020363
2011-07-25 06:32:25 51°13.652 2°55.955 19.3588 0.01012 0.056144 -3.020363
2011-07-25 06:32:30 51°13.654 2°55.947 19.3577 0.01012 0.056144 -3.020363
2011-07-25 06:32:35 51°13.656 2°55.94 19.3574 0.01012 0.056144 -3.020363
2011-07-25 06:32:40 51°13.657 2°55.932 19.3725 0.01012 0.056145 -3.020363
2011-07-25 06:32:45 51°13.659 2°55.924 19.3665 0.01012 0.056145 -3.020363
2011-07-25 06:32:50 51°13.661 2°55.916 19.3701 0.01012 0.056146 -3.020363
2011-07-25 06:32:55 51°13.663 2°55.909 19.3659 0.01012 0.056146 -3.020363
2011-07-25 06:33:00 51°13.665 2°55.901 19.3658 0.01012 0.056146 -3.020363
2011-07-25 06:33:05 51°13.668 2°55.893 19.3698 0.01012 0.056146 -3.020363
2011-07-25 06:33:10 51°13.67 2°55.885 19.3718 0.01012 0.056147 -3.020363
2011-07-25 06:33:15 51°13.672 2°55.878 19.3698 0.01012 0.056147 -3.020363
2011-07-25 06:33:20 51°13.674 2°55.87 19.3706 0.01012 0.056147 -3.020363
2011-07-25 06:33:25 51°13.677 2°55.863 19.3651 0.01012 0.056148 -3.020363
2011-07-25 06:33:30 51°13.679 2°55.856 19.3687 0.01012 0.056149 -3.020363
2011-07-25 06:33:35 51°13.681 2°55.848 19.368 0.01012 0.056149 -3.020363
2011-07-25 06:33:40 51°13.683 2°55.842 19.3673 0.01012 0.056149 -3.020363
2011-07-25 06:33:46 51°13.685 2°55.834 19.3665 0.01012 0.056149 -3.020363
2011-07-25 06:33:50 51°13.687 2°55.828 19.3669 0.01012 0.05615 -3.020363
2011-07-25 06:33:55 51°13.689 2°55.822 19.3667 0.01012 0.05615 -3.020363
2011-07-25 06:34:00 51°13.691 2°55.815 19.3666 0.01012 0.056151 -3.020363
2011-07-25 06:34:06 51°13.693 2°55.808 19.3656 0.01012 0.056151 -3.020363
2011-07-25 06:34:10 51°13.694 2°55.803 19.3654 0.01012 0.056151 -3.020363
2011-07-25 06:34:15 51°13.696 2°55.796 19.3604 0.01012 0.056151 -3.020363
2011-07-25 06:34:20 51°13.698 2°55.79 19.362 0.01012 0.056152 -3.020363
2011-07-25 06:34:25 51°13.7 2°55.783 19.3572 0.01012 0.056152 -3.020363
2011-07-25 06:34:30 51°13.701 2°55.777 19.3586 0.01012 0.056153 -3.020363
2011-07-25 06:34:35 51°13.703 2°55.77 19.3576 0.01012 0.056153 -3.020363
2011-07-25 06:34:40 51°13.704 2°55.763 19.3561 0.01012 0.056153 -3.020363
2011-07-25 06:34:45 51°13.705 2°55.757 19.3587 0.01012 0.056153 -3.020363
2011-07-25 06:34:50 51°13.706 2°55.75 19.3651 0.01012 0.056154 -3.020363
2011-07-25 06:34:56 51°13.707 2°55.742 19.366 0.01012 0.056155 -3.020363
2011-07-25 06:35:00 51°13.707 2°55.738 19.3663 0.01012 0.056155 -3.020363
2011-07-25 06:35:05 51°13.708 2°55.733 19.3786 0.01012 0.056155 -3.020363
2011-07-25 06:35:10 51°13.708 2°55.73 19.3753 0.01012 0.056155 -3.020363
2011-07-25 06:35:16 51°13.708 2°55.728 19.3779 0.01012 0.056155 -3.020363
2011-07-25 06:35:20 51°13.709 2°55.727 19.3788 0.01012 0.056156 -3.020363
2011-07-25 06:35:26 51°13.709 2°55.727 19.3793 0.01012 0.056157 -3.020363
2011-07-25 06:35:30 51°13.709 2°55.727 19.3796 0.01012 0.056158 -3.020363
2011-07-25 06:35:35 51°13.71 2°55.728 19.3804 0.01012 0.056158 -3.020363
2011-07-25 06:35:40 51°13.71 2°55.73 19.3803 0.01012 0.056158 -3.020363
2011-07-25 06:35:45 51°13.711 2°55.731 19.3807 0.01012 0.056158 -3.020363
2011-07-25 06:35:50 51°13.713 2°55.734 19.3734 0.01012 0.056158 -3.020363
2011-07-25 06:35:55 51°13.714 2°55.735 19.3628 0.01012 0.056159 -3.020363
2011-07-25 06:36:00 51°13.715 2°55.737 19.351 0.01012 0.05616 -3.020363
2011-07-25 06:36:05 51°13.715 2°55.737 19.3555 0.01012 0.05616 -3.020363
2011-07-25 06:36:10 51°13.715 2°55.737 19.3582 0.01012 0.05616 -3.020363
2011-07-25 06:36:15 51°13.715 2°55.737 19.3603 0.01012 0.05616 -3.020363
2011-07-25 06:36:20 51°13.715 2°55.737 19.3334 0.01012 0.056161 -3.020363
2011-07-25 06:36:25 51°13.714 2°55.736 19.3391 0.01012 0.056161 -3.020363
2011-07-25 06:36:30 51°13.712 2°55.735 19.3611 0.01012 0.056162 -3.020363
2011-07-25 06:36:35 51°13.711 2°55.734 19.3545 0.01012 0.056162 -3.020363
2011-07-25 06:36:40 51°13.708 2°55.733 19.3537 0.01012 0.056162 -3.020363
2011-07-25 06:36:44 51°13.706 2°55.732 19.3618 0.01012 0.056162 -3.020363
2011-07-25 06:36:50 51°13.703 2°55.73 19.3728 0.01012 0.056163 -3.020363
2011-07-25 06:36:55 51°13.7 2°55.728 19.3712 0.01012 0.056163 -3.020363
2011-07-25 06:37:00 51°13.698 2°55.727 19.3832 0.01012 0.056164 -3.020363
2011-07-25 06:37:05 51°13.697 2°55.727 19.3815 0.01012 0.056164 -3.020363
2011-07-25 06:37:10 51°13.697 2°55.726 19.3837 0.01012 0.056164 -3.020363
2011-07-25 06:37:15 51°13.697 2°55.726 19.3946 0.01012 0.056164 -3.020363
2011-07-25 06:37:20 51°13.698 2°55.726 19.3978 0.01012 0.056164 -3.020363
2011-07-25 06:37:25 51°13.7 2°55.726 19.4046 0.01012 0.056165 -3.020363
2011-07-25 06:37:31 51°13.704 2°55.725 19.4054 0.01012 0.056165 -3.020363
2011-07-25 06:37:35 51°13.706 2°55.724 19.404 0.01012 0.056165 -3.020363
2011-07-25 06:37:40 51°13.71 2°55.721 19.4013 0.01012 0.056166 -3.020363
2011-07-25 06:37:44 51°13.714 2°55.719 19.3973 0.01012 0.056166 -3.020363
2011-07-25 06:37:50 51°13.72 2°55.714 19.395 0.01012 0.056166 -3.020363
2011-07-25 06:37:55 51°13.726 2°55.71 19.3829 0.01012 0.056167 -3.020363
2011-07-25 06:38:00 51°13.733 2°55.705 19.382 0.01012 0.056168 -3.020363
2011-07-25 06:38:05 51°13.741 2°55.7 19.3722 0.01012 0.056168 -3.020363
2011-07-25 06:38:10 51°13.749 2°55.694 19.373 0.01012 0.056168 -3.020363
2011-07-25 06:38:15 51°13.758 2°55.687 19.3576 0.01012 0.056169 -3.020363
2011-07-25 06:38:20 51°13.768 2°55.68 19.3574 0.01012 0.056169 -3.020363
2011-07-25 06:38:25 51°13.778 2°55.673 19.3548 0.01012 0.056169 -3.020363
2011-07-25 06:38:29 51°13.786 2°55.666 19.357 0.01012 0.056169 -3.020363
2011-07-25 06:38:35 51°13.799 2°55.657 19.3589 0.01012 0.056169 -3.020363
2011-07-25 06:38:40 51°13.81 2°55.648 19.3472 0.01012 0.05617 -3.020363
2011-07-25 06:38:45 51°13.821 2°55.639 19.3578 0.01012 0.05617 -3.020363
2011-07-25 06:38:49 51°13.831 2°55.632 19.3673 0.01012 0.056171 -3.020363
2011-07-25 06:38:54 51°13.843 2°55.623 19.3387 0.01012 0.056171 -3.020363
2011-07-25 06:38:59 51°13.855 2°55.613 19.3626 0.01012 0.056171 -3.020363
2011-07-25 06:39:04 51°13.867 2°55.603 19.3513 0.01012 0.056171 -3.020363
2011-07-25 06:39:09 51°13.879 2°55.593 19.333 0.01012 0.056172 -3.020363
2011-07-25 06:39:14 51°13.892 2°55.584 19.3314 0.01012 0.056172 -3.020363
2011-07-25 06:39:19 51°13.905 2°55.574 19.3456 0.01012 0.056173 -3.020363
2011-07-25 06:39:24 51°13.918 2°55.565 19.3573 0.01012 0.056173 -3.020363
2011-07-25 06:39:29 51°13.93 2°55.555 19.3582 0.01012 0.056173 -3.020363
2011-07-25 06:39:34 51°13.944 2°55.546 19.3644 0.01012 0.056173 -3.020363
2011-07-25 06:39:39 51°13.957 2°55.536 19.36 0.01012 0.056173 -3.020363
2011-07-25 06:39:44 51°13.97 2°55.527 19.3598 0.01012 0.056174 -3.020363
2011-07-25 06:39:49 51°13.983 2°55.517 19.3562 0.01012 0.056175 -3.020363
2011-07-25 06:39:54 51°13.996 2°55.508 19.3504 0.01012 0.056175 -3.020363
2011-07-25 06:40:00 51°14.012 2°55.497 19.3587 0.01012 0.056175 -3.020363
2011-07-25 06:40:05 51°14.025 2°55.487 19.3721 0.01012 0.056175 -3.020363
2011-07-25 06:40:10 51°14.037 2°55.478 19.3581 0.01012 0.056175 -3.020363
2011-07-25 06:40:15 51°14.051 2°55.469 19.3817 0.01012 0.056176 -3.020363
2011-07-25 06:40:20 51°14.064 2°55.459 19.3675 0.01012 0.056176 -3.020363
2011-07-25 06:40:25 51°14.077 2°55.449 19.3647 0.01012 0.056177 -3.020363
2011-07-25 06:40:29 51°14.088 2°55.442 19.3874 0.01012 0.056177 -3.020363
2011-07-25 06:40:35 51°14.103 2°55.43 19.3835 0.01012 0.056177 -3.020363
2011-07-25 06:40:40 51°14.117 2°55.421 19.378 0.01012 0.056177 -3.020363
2011-07-25 06:40:45 51°14.13 2°55.41 19.3833 0.01012 0.056177 -3.020363
2011-07-25 06:40:49 51°14.141 2°55.403 19.3787 0.01012 0.056178 -3.020363
2011-07-25 06:40:54 51°14.154 2°55.393 19.377 0.01012 0.056178 -3.020363
2011-07-25 06:40:59 51°14.167 2°55.383 19.3695 0.01012 0.056179 -3.020363
2011-07-25 06:41:06 51°14.186 2°55.368 19.3734 0.01012 0.056179 -3.020363
2011-07-25 06:41:10 51°14.196 2°55.359 19.3723 0.01012 0.056179 -3.020363
2011-07-25 06:41:14 51°14.207 2°55.351 19.3816 0.01012 0.056179 -3.020363
2011-07-25 06:41:20 51°14.223 2°55.338 19.3631 0.01012 0.05618 -3.020363
2011-07-25 06:41:25 51°14.236 2°55.327 19.3844 0.01012 0.05618 -3.020363
2011-07-25 06:41:30 51°14.25 2°55.315 19.3519 0.01012 0.05618 -3.020363
2011-07-25 06:41:35 51°14.263 2°55.304 19.3823 0.01012 0.05618 -3.020363
2011-07-25 06:41:40 51°14.277 2°55.292 19.3576 0.01012 0.056181 -3.020363
2011-07-25 06:41:45 51°14.29 2°55.279 19.3705 0.01012 0.056181 -3.020363
2011-07-25 06:41:50 51°14.304 2°55.268 19.3554 0.01012 0.056182 -3.020363
2011-07-25 06:41:55 51°14.317 2°55.255 19.3549 0.01012 0.056182 -3.020363
2011-07-25 06:42:00 51°14.33 2°55.242 19.3272 0.01012 0.056182 -3.020363
2011-07-25 06:42:05 51°14.343 2°55.229 19.3565 0.01012 0.056182 -3.020363
2011-07-25 06:42:10 51°14.357 2°55.216 19.3604 0.01012 0.056183 -3.020363
2011-07-25 06:42:15 51°14.37 2°55.203 19.3468 0.01012 0.056183 -3.020363
2011-07-25 06:42:20 51°14.383 2°55.19 19.3527 0.01012 0.056183 -3.020363
2011-07-25 06:42:25 51°14.396 2°55.176 19.3419 0.01012 0.056184 -3.020363
2011-07-25 06:42:30 51°14.41 2°55.164 19.3731 0.01012 0.056184 -3.020363
2011-07-25 06:42:35 51°14.423 2°55.151 19.3404 0.01012 0.056184 -3.020363
2011-07-25 06:42:40 51°14.437 2°55.138 19.3453 0.01012 0.056184 -3.020363
2011-07-25 06:42:45 51°14.451 2°55.125 19.2823 0.01012 0.056184 -3.020363
2011-07-25 06:42:51 51°14.467 2°55.109 19.3181 0.01012 0.056184 -3.020363
2011-07-25 06:42:55 51°14.478 2°55.099 19.3134 0.01012 0.056185 -3.020363
2011-07-25 06:43:00 51°14.492 2°55.086 19.3428 0.01012 0.056186 -3.020363
2011-07-25 06:43:05 51°14.505 2°55.072 19.28 0.01012 0.056186 -3.020363
2011-07-25 06:43:10 51°14.519 2°55.059 19.301 0.01012 0.056186 -3.020363
2011-07-25 06:43:15 51°14.534 2°55.046 19.3157 0.01012 0.056186 -3.020363
2011-07-25 06:43:20 51°14.548 2°55.033 19.2991 0.01012 0.056186 -3.020363
2011-07-25 06:43:25 51°14.563 2°55.019 19.284 0.01012 0.056187 -3.020363
2011-07-25 06:43:30 51°14.578 2°55.005 19.3037 0.01012 0.056187 -3.020363
2011-07-25 06:43:35 51°14.593 2°54.993 19.3185 0.01012 0.056187 -3.020363
2011-07-25 06:43:40 51°14.608 2°54.98 19.3211 0.01012 0.056187 -3.020363
2011-07-25 06:43:45 51°14.624 2°54.967 19.3005 0.01012 0.056188 -3.020363
2011-07-25 06:43:50 51°14.639 2°54.953 19.2865 0.01012 0.056188 -3.020363
2011-07-25 06:43:55 51°14.654 2°54.939 19.294 0.01012 0.056188 -3.020363
2011-07-25 06:44:00 51°14.669 2°54.925 19.3085 0.01012 0.056189 -3.020363
2011-07-25 06:44:05 51°14.684 2°54.91 19.2631 0.01012 0.056189 -3.020363
2011-07-25 06:44:10 51°14.698 2°54.896 19.2946 0.01012 0.056189 -3.020363
2011-07-25 06:44:15 51°14.713 2°54.881 19.3133 0.01012 0.05619 -3.020363
2011-07-25 06:44:19 51°14.724 2°54.869 19.31 0.01012 0.05619 -3.020363
2011-07-25 06:44:24 51°14.739 2°54.854 19.3039 0.01012 0.056191 -3.020363
2011-07-25 06:44:29 51°14.754 2°54.839 19.3124 0.01012 0.056191 -3.020363
2011-07-25 06:44:35 51°14.771 2°54.821 19.3045 0.01012 0.056191 -3.020363
2011-07-25 06:44:39 51°14.782 2°54.808 19.308 0.01012 0.056191 -3.020363
2011-07-25 06:44:44 51°14.797 2°54.792 19.2842 0.01012 0.056191 -3.020363
2011-07-25 06:44:49 51°14.811 2°54.776 19.2961 0.01012 0.056191 -3.020363
2011-07-25 06:44:54 51°14.825 2°54.76 19.2895 0.01012 0.056192 -3.020363
2011-07-25 06:44:59 51°14.839 2°54.743 19.3031 0.01012 0.056192 -3.020363
2011-07-25 06:45:04 51°14.853 2°54.725 19.2995 0.01012 0.056192 -3.020363
2011-07-25 06:45:08 51°14.863 2°54.711 19.3104 0.01012 0.056193 -3.020363
2011-07-25 06:45:14 51°14.878 2°54.689 19.277 0.01012 0.056193 -3.020363
2011-07-25 06:45:19 51°14.891 2°54.669 19.2872 0.01012 0.056193 -3.020363
2011-07-25 06:45:23 51°14.9 2°54.654 19.2804 0.01012 0.056194 -3.020363
2011-07-25 06:45:28 51°14.913 2°54.635 19.2871 0.01012 0.056194 -3.020363
2011-07-25 06:45:33 51°14.925 2°54.616 19.2853 0.01012 0.056194 -3.020363
2011-07-25 06:45:38 51°14.938 2°54.599 19.288 0.01012 0.056194 -3.020363
2011-07-25 06:45:43 51°14.952 2°54.582 19.2932 0.01012 0.056194 -3.020363
2011-07-25 06:45:48 51°14.966 2°54.566 19.2888 0.01012 0.056195 -3.020363
2011-07-25 06:45:53 51°14.98 2°54.549 19.2883 0.01012 0.056195 -3.020363
2011-07-25 06:45:58 51°14.994 2°54.532 19.2969 0.01012 0.056195 -3.020363
2011-07-25 06:46:03 51°15.008 2°54.515 19.3094 0.01012 0.056195 -3.020363
2011-07-25 06:46:07 51°15.018 2°54.501 19.2971 0.01012 0.056195 -3.020363
2011-07-25 06:46:12 51°15.032 2°54.484 19.305 0.01012 0.056196 -3.020363
2011-07-25 06:46:17 51°15.045 2°54.466 19.3024 0.01012 0.056196 -3.020363
2011-07-25 06:46:22 51°15.059 2°54.448 19.3048 0.01012 0.056197 -3.020363
2011-07-25 06:46:27 51°15.072 2°54.43 19.2952 0.01012 0.056197 -3.020363
2011-07-25 06:46:32 51°15.085 2°54.412 19.2954 0.01012 0.056197 -3.020363
2011-07-25 06:46:37 51°15.098 2°54.394 19.2898 0.01012 0.056197 -3.020363
2011-07-25 06:46:42 51°15.111 2°54.375 19.294 0.01012 0.056197 -3.020363
2011-07-25 06:46:47 51°15.124 2°54.357 19.2859 0.01012 0.056197 -3.020363
2011-07-25 06:46:51 51°15.135 2°54.342 19.2962 0.01012 0.056197 -3.020363
2011-07-25 06:46:56 51°15.148 2°54.324 19.3077 0.01012 0.056198 -3.020363
2011-07-25 06:47:02 51°15.164 2°54.302 19.3014 0.01012 0.056198 -3.020363
2011-07-25 06:47:07 51°15.177 2°54.283 19.302 0.01012 0.056199 -3.020363
2011-07-25 06:47:11 51°15.188 2°54.269 19.3094 0.01012 0.056199 -3.020363
2011-07-25 06:47:16 51°15.201 2°54.251 19.3018 0.01012 0.056199 -3.020363
2011-07-25 06:47:22 51°15.217 2°54.23 19.2778 0.01012 0.056199 -3.020363
2011-07-25 06:47:27 51°15.23 2°54.213 19.2955 0.01012 0.056199 -3.020363
2011-07-25 06:47:31 51°15.241 2°54.2 19.2983 0.01012 0.056199 -3.020363
2011-07-25 06:47:36 51°15.255 2°54.183 19.2861 0.01012 0.056199 -3.020363
2011-07-25 06:47:41 51°15.269 2°54.167 19.2821 0.01012 0.056199 -3.020363
2011-07-25 06:47:47 51°15.286 2°54.148 19.2977 0.01012 0.056199 -3.020363
2011-07-25 06:47:51 51°15.298 2°54.135 19.3058 0.01012 0.0562 -3.020363
2011-07-25 06:47:56 51°15.312 2°54.12 19.3047 0.01012 0.0562 -3.020363
2011-07-25 06:48:01 51°15.327 2°54.105 19.2933 0.01012 0.0562 -3.020363
2011-07-25 06:48:07 51°15.345 2°54.088 19.3041 0.01012 0.056201 -3.020363
2011-07-25 06:48:11 51°15.357 2°54.077 19.2989 0.01012 0.056201 -3.020363
2011-07-25 06:48:16 51°15.372 2°54.062 19.2891 0.01012 0.056201 -3.020363
2011-07-25 06:48:21 51°15.386 2°54.047 19.2988 0.01012 0.056202 -3.020363
2011-07-25 06:48:27 51°15.404 2°54.029 19.3111 0.01012 0.056202 -3.020363
2011-07-25 06:48:31 51°15.415 2°54.016 19.3059 0.01012 0.056202 -3.020363
2011-07-25 06:48:36 51°15.429 2°54 19.3125 0.01012 0.056202 -3.020363
2011-07-25 06:48:42 51°15.446 2°53.98 19.2976 0.01012 0.056202 -3.020363
2011-07-25 06:48:47 51°15.46 2°53.963 19.307 0.01012 0.056203 -3.020363
2011-07-25 06:48:51 51°15.471 2°53.949 19.2918 0.01012 0.056203 -3.020363
2011-07-25 06:48:56 51°15.485 2°53.933 19.3061 0.01012 0.056203 -3.020363
2011-07-25 06:49:02 51°15.501 2°53.913 19.3086 0.01012 0.056203 -3.020363
2011-07-25 06:49:07 51°15.515 2°53.896 19.2904 0.01012 0.056204 -3.020363
2011-07-25 06:49:11 51°15.527 2°53.883 19.289 0.01012 0.056204 -3.020363
2011-07-25 06:49:16 51°15.541 2°53.867 19.3047 0.01012 0.056204 -3.020363
2011-07-25 06:49:22 51°15.558 2°53.848 19.3146 0.01012 0.056204 -3.020363
2011-07-25 06:49:27 51°15.572 2°53.832 19.2968 0.01012 0.056204 -3.020363
2011-07-25 06:49:31 51°15.584 2°53.819 19.3137 0.01012 0.056204 -3.020363
2011-07-25 06:49:36 51°15.598 2°53.804 19.3167 0.01012 0.056204 -3.020363
2011-07-25 06:49:42 51°15.615 2°53.785 19.2982 0.01012 0.056205 -3.020363
2011-07-25 06:49:47 51°15.63 2°53.77 19.3158 0.01012 0.056205 -3.020363
2011-07-25 06:49:51 51°15.641 2°53.757 19.3145 0.01012 0.056205 -3.020363
2011-07-25 06:49:56 51°15.655 2°53.741 19.3078 0.01012 0.056206 -3.020363
2011-07-25 06:50:02 51°15.671 2°53.721 19.3063 0.01012 0.056206 -3.020363
2011-07-25 06:50:07 51°15.683 2°53.703 19.3189 0.01012 0.056206 -3.020363
2011-07-25 06:50:11 51°15.694 2°53.688 19.3179 0.01012 0.056206 -3.020363
2011-07-25 06:50:16 51°15.707 2°53.67 19.3085 0.01012 0.056206 -3.020363
2011-07-25 06:50:21 51°15.719 2°53.651 19.3125 0.01012 0.056206 -3.020363
2011-07-25 06:50:27 51°15.733 2°53.629 19.3009 0.01012 0.056207 -3.020363
2011-07-25 06:50:31 51°15.743 2°53.613 19.3108 0.01012 0.056207 -3.020363
2011-07-25 06:50:36 51°15.755 2°53.593 19.3139 0.01012 0.056207 -3.020363
2011-07-25 06:50:42 51°15.77 2°53.57 19.3217 0.01012 0.056207 -3.020363
2011-07-25 06:50:47 51°15.783 2°53.552 19.3291 0.01012 0.056207 -3.020363
2011-07-25 06:50:51 51°15.793 2°53.538 19.3042 0.01012 0.056208 -3.020363
2011-07-25 06:50:56 51°15.806 2°53.52 19.3126 0.01012 0.056208 -3.020363
2011-07-25 06:51:02 51°15.823 2°53.501 19.3203 0.01012 0.056208 -3.020363
2011-07-25 06:51:07 51°15.837 2°53.486 19.3213 0.01012 0.056208 -3.020363
2011-07-25 06:51:11 51°15.849 2°53.475 19.3238 0.01012 0.056208 -3.020363
2011-07-25 06:51:17 51°15.868 2°53.459 19.3116 0.01012 0.056208 -3.020363
2011-07-25 06:51:22 51°15.883 2°53.445 19.308 0.01012 0.056208 -3.020363
2011-07-25 06:51:27 51°15.899 2°53.433 19.3249 0.01012 0.056208 -3.020363
2011-07-25 06:51:31 51°15.912 2°53.423 19.3196 0.01012 0.056208 -3.020363
2011-07-25 06:51:36 51°15.928 2°53.411 19.3203 0.01012 0.056209 -3.020363
2011-07-25 06:51:42 51°15.947 2°53.398 19.3158 0.01012 0.056209 -3.020363
2011-07-25 06:51:47 51°15.963 2°53.387 19.3289 0.01012 0.056209 -3.020363
2011-07-25 06:51:51 51°15.977 2°53.378 19.331 0.01012 0.05621 -3.020363
2011-07-25 06:51:56 51°15.993 2°53.367 19.3273 0.01012 0.05621 -3.020363
2011-07-25 06:52:02 51°16.013 2°53.354 19.314 0.01012 0.05621 -3.020363
2011-07-25 06:52:07 51°16.029 2°53.343 19.3108 0.01012 0.05621 -3.020363
2011-07-25 06:52:11 51°16.042 2°53.334 19.3171 0.01012 0.05621 -3.020363
2011-07-25 06:52:17 51°16.061 2°53.32 19.3289 0.01012 0.05621 -3.020363
2011-07-25 06:52:21 51°16.074 2°53.311 19.3241 0.01012 0.05621 -3.020363
2011-07-25 06:52:26 51°16.09 2°53.3 19.3364 0.01012 0.056211 -3.020363
2011-07-25 06:52:31 51°16.106 2°53.288 19.3322 0.01012 0.056211 -3.020363
2011-07-25 06:52:37 51°16.125 2°53.274 19.3387 0.01012 0.056211 -3.020363
2011-07-25 06:52:42 51°16.142 2°53.263 19.3386 0.01012 0.056211 -3.020363
2011-07-25 06:52:47 51°16.157 2°53.249 19.341 0.01012 0.056212 -3.020363
2011-07-25 06:52:52 51°16.173 2°53.236 19.3418 0.01012 0.056212 -3.020363
2011-07-25 06:52:56 51°16.185 2°53.225 19.3314 0.01012 0.056212 -3.020363
2011-07-25 06:53:02 51°16.203 2°53.208 19.3258 0.01012 0.056212 -3.020363
2011-07-25 06:53:06 51°16.215 2°53.196 19.3301 0.01012 0.056212 -3.020363
2011-07-25 06:53:12 51°16.233 2°53.178 19.3439 0.01012 0.056213 -3.020363
2011-07-25 06:53:16 51°16.245 2°53.167 19.3435 0.01012 0.056213 -3.020363
2011-07-25 06:53:21 51°16.26 2°53.152 19.3443 0.01012 0.056213 -3.020363
2011-07-25 06:53:26 51°16.275 2°53.137 19.3347 0.01012 0.056213 -3.020363
2011-07-25 06:53:31 51°16.29 2°53.123 19.3314 0.01012 0.056213 -3.020363
2011-07-25 06:53:36 51°16.305 2°53.108 19.3452 0.01012 0.056213 -3.020363
2011-07-25 06:53:42 51°16.323 2°53.09 19.3344 0.01012 0.056213 -3.020363
2011-07-25 06:53:47 51°16.338 2°53.076 19.3337 0.01012 0.056213 -3.020363
2011-07-25 06:53:52 51°16.352 2°53.061 19.3461 0.01012 0.056213 -3.020363
2011-07-25 06:53:57 51°16.367 2°53.047 19.3458 0.01012 0.056213 -3.020363
2011-07-25 06:54:02 51°16.382 2°53.032 19.3441 0.01012 0.056213 -3.020363
2011-07-25 06:54:07 51°16.396 2°53.018 19.351 0.01012 0.056214 -3.020363
2011-07-25 06:54:12 51°16.411 2°53.002 19.3456 0.01012 0.056214 -3.020363
2011-07-25 06:54:17 51°16.425 2°52.987 19.354 0.01012 0.056214 -3.020363
2011-07-25 06:54:22 51°16.44 2°52.971 19.3399 0.01012 0.056215 -3.020363
2011-07-25 06:54:27 51°16.454 2°52.955 19.344 0.01012 0.056215 -3.020363
2011-07-25 06:54:32 51°16.469 2°52.94 19.3359 0.01012 0.056215 -3.020363
2011-07-25 06:54:37 51°16.483 2°52.925 19.3444 0.01012 0.056215 -3.020363
2011-07-25 06:54:41 51°16.495 2°52.913 19.3436 0.01012 0.056215 -3.020363
2011-07-25 06:54:47 51°16.513 2°52.895 19.3477 0.01012 0.056215 -3.020363
2011-07-25 06:54:52 51°16.529 2°52.882 19.3456 0.01012 0.056215 -3.020363
2011-07-25 06:54:57 51°16.545 2°52.869 19.3547 0.01012 0.056215 -3.020363
2011-07-25 06:55:01 51°16.558 2°52.859 19.3469 0.01012 0.056215 -3.020363
2011-07-25 06:55:06 51°16.574 2°52.847 19.3469 0.01012 0.056215 -3.020363
2011-07-25 06:55:12 51°16.593 2°52.833 19.356 0.01012 0.056215 -3.020363
2011-07-25 06:55:17 51°16.609 2°52.822 19.3547 0.01012 0.056215 -3.020363
2011-07-25 06:55:21 51°16.622 2°52.813 19.3578 0.01012 0.056215 -3.020363
2011-07-25 06:55:26 51°16.639 2°52.802 19.3582 0.01012 0.056215 -3.020363
2011-07-25 06:55:32 51°16.659 2°52.79 19.3588 0.01012 0.056216 -3.020363
2011-07-25 06:55:37 51°16.676 2°52.78 19.36 0.01012 0.056216 -3.020363
2011-07-25 06:55:41 51°16.689 2°52.772 19.3665 0.01012 0.056216 -3.020363
2011-07-25 06:55:46 51°16.705 2°52.761 19.3688 0.01012 0.056216 -3.020363
2011-07-25 06:55:52 51°16.725 2°52.748 19.3618 0.01012 0.056216 -3.020363
2011-07-25 06:55:57 51°16.741 2°52.736 19.3551 0.01012 0.056217 -3.020363
2011-07-25 06:56:01 51°16.753 2°52.727 19.3618 0.01012 0.056217 -3.020363
2011-07-25 06:56:07 51°16.772 2°52.711 19.356 0.01012 0.056217 -3.020363
2011-07-25 06:56:12 51°16.788 2°52.698 19.364 0.01012 0.056217 -3.020363
2011-07-25 06:56:17 51°16.804 2°52.686 19.3621 0.01012 0.056217 -3.020363
2011-07-25 06:56:21 51°16.816 2°52.675 19.362 0.01012 0.056217 -3.020363
2011-07-25 06:56:27 51°16.835 2°52.659 19.3699 0.01012 0.056217 -3.020363
2011-07-25 06:56:32 51°16.851 2°52.646 19.3613 0.01012 0.056217 -3.020363
2011-07-25 06:56:37 51°16.866 2°52.632 19.3705 0.01012 0.056217 -3.020363
2011-07-25 06:56:41 51°16.879 2°52.622 19.3629 0.01012 0.056217 -3.020363
2011-07-25 06:56:47 51°16.897 2°52.604 19.3695 0.01012 0.056218 -3.020363
2011-07-25 06:56:52 51°16.912 2°52.589 19.3655 0.01012 0.056218 -3.020363
2011-07-25 06:56:57 51°16.927 2°52.575 19.3609 0.01012 0.056218 -3.020363
2011-07-25 06:57:01 51°16.939 2°52.563 19.1245 0.01012 0.056218 -3.020363
2011-07-25 06:57:06 51°16.955 2°52.549 18.6747 0.01012 0.056219 -3.020363
2011-07-25 06:57:12 51°16.974 2°52.533 18.3273 0.01012 0.056251 -3.020363
2011-07-25 06:57:17 51°16.989 2°52.521 18.1772 0.01012 0.056264 -3.020363
2011-07-25 06:57:21 51°17.002 2°52.512 17.9861 4.22745 30.768817 -3.020363
2011-07-25 06:57:26 51°17.019 2°52.501 17.9199 4.542843 33.358588 -3.020363
2011-07-25 06:57:32 51°17.038 2°52.488 17.8376 4.542843 33.358588 -3.020363
2011-07-25 06:57:37 51°17.055 2°52.478 17.8123 4.61454 34.054345 -3.020363
2011-07-25 06:57:41 51°17.068 2°52.47 17.7703 4.457575 32.894102 -3.020363
2011-07-25 06:57:46 51°17.085 2°52.46 17.7405 4.333949 32.084484 -3.020363
2011-07-25 06:57:52 51°17.106 2°52.449 17.7581 4.349716 32.391936 -3.020363
2011-07-25 06:57:57 51°17.122 2°52.438 17.7123 4.307823 32.218354 -3.020363
2011-07-25 06:58:01 51°17.135 2°52.431 17.6953 4.307823 32.218354 -3.020363
2011-07-25 06:58:06 51°17.152 2°52.421 17.677 4.290612 32.180985 -3.020363
2011-07-25 06:58:12 51°17.172 2°52.409 17.6629 4.276615 32.174264 -3.020363
2011-07-25 06:58:17 51°17.189 2°52.399 17.6593 4.266351 32.160933 -3.020363
2011-07-25 06:58:21 51°17.202 2°52.39 17.6555 4.261582 32.17704 -3.020363
2011-07-25 06:58:26 51°17.218 2°52.38 17.6578 4.024092 30.218484 -3.020363
2011-07-25 06:58:32 51°17.237 2°52.367 17.6508 4.024092 30.218484 -3.020363
2011-07-25 06:58:36 51°17.25 2°52.359 17.643 4.247378 32.126719 -3.020363
2011-07-25 06:58:41 51°17.267 2°52.349 17.6557 4.253289 32.197373 -3.020363
2011-07-25 06:58:46 51°17.283 2°52.339 17.655 4.250386 32.202392 -3.020363
2011-07-25 06:58:52 51°17.303 2°52.329 17.6453 4.249972 32.21715 -3.020363
2011-07-25 06:58:56 51°17.317 2°52.322 17.6494 4.248417 32.21596 -3.020363
2011-07-25 06:59:01 51°17.334 2°52.314 17.6452 4.248417 32.21596 -3.020363
2011-07-25 06:59:06 51°17.352 2°52.308 17.6399 4.247795 32.21889 -3.020363
2011-07-25 06:59:11 51°17.369 2°52.301 17.6463 4.246654 32.216168 -3.020363
2011-07-25 06:59:16 51°17.387 2°52.295 17.6487 4.246136 32.213669 -3.020363
2011-07-25 06:59:21 51°17.405 2°52.289 17.6485 4.245618 32.21117 -3.020363
2011-07-25 06:59:26 51°17.422 2°52.284 17.6295 4.246655 32.223741 -3.020363
2011-07-25 06:59:31 51°17.44 2°52.278 17.6322 4.246655 32.223741 -3.020363
2011-07-25 06:59:36 51°17.458 2°52.272 17.6312 4.246551 32.22665 -3.020363
2011-07-25 06:59:41 51°17.475 2°52.265 17.6278 4.247173 32.233816 -3.020363
2011-07-25 06:59:46 51°17.493 2°52.259 17.635 4.247277 32.237221 -3.020363
2011-07-25 06:59:51 51°17.51 2°52.253 17.6326 4.247277 32.23659 -3.020363
2011-07-25 06:59:56 51°17.528 2°52.247 17.636 4.24738 32.241259 -3.020363
2011-07-25 07:00:01 51°17.546 2°52.24 17.633 4.24738 32.241259 -3.020363
2011-07-25 07:00:06 51°17.563 2°52.234 17.6307 4.247588 32.248072 -3.020363
2011-07-25 07:00:11 51°17.581 2°52.228 17.6368 4.247484 32.250354 -3.020363
2011-07-25 07:00:16 51°17.599 2°52.223 17.6342 4.233798 32.136865 -3.020363
2011-07-25 07:00:21 51°17.617 2°52.219 17.6368 4.246862 32.247608 -3.020363
2011-07-25 07:00:26 51°17.635 2°52.214 17.6358 4.24707 32.250631 -3.020363
2011-07-25 07:00:31 51°17.653 2°52.21 17.636 4.24707 32.250631 -3.020363
2011-07-25 07:00:37 51°17.675 2°52.204 17.6354 4.246966 32.248487 -3.020363
2011-07-25 07:00:41 51°17.689 2°52.201 17.6444 4.247588 32.255027 -3.020363
2011-07-25 07:00:46 51°17.707 2°52.196 17.641 4.247795 32.256785 -3.020363
2011-07-25 07:00:51 51°17.725 2°52.191 17.6433 4.247795 32.257417 -3.020363
2011-07-25 07:00:56 51°17.742 2°52.186 17.6424 4.248107 32.259423 -3.020363
2011-07-25 07:01:01 51°17.76 2°52.181 17.639 4.248107 32.259423 -3.020363
2011-07-25 07:01:05 51°17.775 2°52.176 17.6432 4.248418 32.262693 -3.020363
2011-07-25 07:01:11 51°17.796 2°52.169 17.6387 4.248729 32.264698 -3.020363
2011-07-25 07:01:16 51°17.813 2°52.163 17.6398 4.248729 32.263433 -3.020363
2011-07-25 07:01:21 51°17.831 2°52.156 17.6359 4.249247 32.267197 -3.020363
2011-07-25 07:01:26 51°17.848 2°52.149 17.6412 4.249558 32.270467 -3.020363
2011-07-25 07:01:31 51°17.866 2°52.142 17.6425 4.249558 32.270467 -3.020363
2011-07-25 07:01:36 51°17.883 2°52.136 17.6483 4.249869 32.273105 -3.020363
2011-07-25 07:01:42 51°17.904 2°52.127 17.6475 4.249869 32.273105 -3.020363
2011-07-25 07:01:47 51°17.921 2°52.12 17.6419 4.25018 32.277008 -3.020363
2011-07-25 07:01:52 51°17.938 2°52.113 17.6427 4.250388 32.278134 -3.020363
2011-07-25 07:01:57 51°17.956 2°52.107 17.6398 4.250595 32.280525 -3.020363
2011-07-25 07:02:02 51°17.974 2°52.1 17.6399 4.250595 32.280525 -3.020363
2011-07-25 07:02:06 51°17.988 2°52.095 17.6352 4.250699 32.281405 -3.020363
2011-07-25 07:02:12 51°18.009 2°52.088 17.6379 4.250802 32.281018 -3.020363
2011-07-25 07:02:17 51°18.026 2°52.082 17.6401 4.250906 32.280632 -3.020363
2011-07-25 07:02:22 51°18.044 2°52.076 17.6414 4.251113 32.28239 -3.020363
2011-07-25 07:02:26 51°18.058 2°52.072 17.6387 4.251424 32.285661 -3.020363
2011-07-25 07:02:32 51°18.079 2°52.066 17.6425 4.251528 32.287806 -3.020363
2011-07-25 07:02:37 51°18.097 2°52.063 17.6369 4.251528 32.287806 -3.020363
2011-07-25 07:02:42 51°18.114 2°52.06 17.6346 4.251632 32.289319 -3.020363
2011-07-25 07:02:47 51°18.132 2°52.059 17.6342 4.251736 32.291464 -3.020363
2011-07-25 07:02:52 51°18.151 2°52.058 17.6329 4.251839 32.292344 -3.020363
2011-07-25 07:02:57 51°18.169 2°52.056 17.6281 4.251943 32.293223 -3.020363
2011-07-25 07:03:02 51°18.187 2°52.057 17.6245 4.251943 32.293223 -3.020363
2011-07-25 07:03:07 51°18.205 2°52.057 17.6255 4.251943 32.293223 -3.020363
2011-07-25 07:03:12 51°18.224 2°52.056 17.6269 4.252047 32.293469 -3.020363
2011-07-25 07:03:17 51°18.242 2°52.058 17.6201 4.25215 32.296248 -3.020363
2011-07-25 07:03:22 51°18.26 2°52.057 17.6221 4.25215 32.298148 -3.020363
2011-07-25 07:03:27 51°18.278 2°52.057 17.6151 4.25215 32.299415 -3.020363
2011-07-25 07:03:32 51°18.296 2°52.057 17.6173 4.25215 32.299415 -3.020363
2011-07-25 07:03:37 51°18.315 2°52.056 17.621 4.25215 32.301315 -3.020363
2011-07-25 07:03:42 51°18.333 2°52.055 17.6176 4.249247 32.278587 -3.020363
2011-07-25 07:03:46 51°18.348 2°52.055 17.617 4.251736 32.302231 -3.020363
2011-07-25 07:03:52 51°18.37 2°52.055 17.6132 4.251528 32.301739 -3.020363
2011-07-25 07:03:57 51°18.388 2°52.054 17.6121 4.249973 32.291077 -3.020363
2011-07-25 07:04:02 51°18.406 2°52.053 17.6131 4.249973 32.291077 -3.020363
2011-07-25 07:04:07 51°18.425 2°52.052 17.6107 4.249869 32.291464 -3.020363
2011-07-25 07:04:12 51°18.442 2°52.051 17.6151 4.250077 32.294491 -3.020363
2011-07-25 07:04:17 51°18.46 2°52.05 17.6164 4.249455 32.289212 -3.020363
2011-07-25 07:04:22 51°18.478 2°52.048 17.6119 4.250803 32.301917 -3.020363
2011-07-25 07:04:26 51°18.493 2°52.048 17.6078 4.250803 32.303185 -3.020363
2011-07-25 07:04:32 51°18.513 2°52.047 17.613 4.250803 32.304453 -3.020363
2011-07-25 07:04:37 51°18.531 2°52.046 17.6119 4.250803 32.304453 -3.020363
2011-07-25 07:04:42 51°18.549 2°52.046 17.6092 4.250803 32.305087 -3.020363
2011-07-25 07:04:46 51°18.563 2°52.045 17.6077 4.250803 32.305087 -3.020363
2011-07-25 07:04:52 51°18.585 2°52.044 17.6103 4.250803 32.305087 -3.020363
2011-07-25 07:04:57 51°18.602 2°52.044 17.6113 4.250906 32.3066 -3.020363
2011-07-25 07:05:02 51°18.62 2°52.043 17.6127 4.250906 32.3066 -3.020363
2011-07-25 07:05:06 51°18.635 2°52.043 17.6123 4.25101 32.308114 -3.020363
2011-07-25 07:05:12 51°18.656 2°52.041 17.6143 4.251114 32.309628 -3.020363
2011-07-25 07:05:17 51°18.674 2°52.041 17.615 4.251218 32.311777 -3.020363
2011-07-25 07:05:22 51°18.692 2°52.041 17.6175 4.251425 32.313537 -3.020363
2011-07-25 07:05:26 51°18.706 2°52.04 17.6185 4.251736 32.316177 -3.020363
2011-07-25 07:05:32 51°18.727 2°52.039 17.6161 4.251736 32.316177 -3.020363
2011-07-25 07:05:37 51°18.745 2°52.037 17.6159 4.252151 32.319697 -3.020363
2011-07-25 07:05:42 51°18.763 2°52.036 17.6172 4.252462 32.321703 -3.020363
2011-07-25 07:05:47 51°18.781 2°52.034 17.6226 4.252773 32.323075 -3.020363
2011-07-25 07:05:52 51°18.798 2°52.032 17.6229 4.253188 32.325961 -3.020363
2011-07-25 07:05:57 51°18.816 2°52.029 17.6221 4.253499 32.327332 -3.020363
2011-07-25 07:06:02 51°18.834 2°52.027 17.621 4.253499 32.327332 -3.020363
2011-07-25 07:06:06 51°18.849 2°52.027 17.6201 4.254017 32.331098 -3.020363
2011-07-25 07:06:12 51°18.87 2°52.026 17.6194 4.254432 32.334618 -3.020363
2011-07-25 07:06:17 51°18.888 2°52.026 17.6185 4.254743 32.337259 -3.020363
2011-07-25 07:06:22 51°18.907 2°52.027 17.6194 4.25495 32.338384 -3.020363
2011-07-25 07:06:26 51°18.922 2°52.027 17.6177 4.255157 32.338241 -3.020363
2011-07-25 07:06:32 51°18.944 2°52.029 17.6178 4.255157 32.338241 -3.020363
2011-07-25 07:06:37 51°18.962 2°52.03 17.6194 4.255572 32.341126 -3.020363
2011-07-25 07:06:42 51°18.981 2°52.032 17.6182 4.255883 32.343766 -3.020363
2011-07-25 07:06:47 51°18.999 2°52.033 17.619 4.256298 32.347921 -3.020363
2011-07-25 07:06:52 51°19.018 2°52.036 17.6187 4.256609 32.350561 -3.020363
2011-07-25 07:06:57 51°19.036 2°52.038 17.6173 4.256816 32.352956 -3.020363
2011-07-25 07:07:02 51°19.055 2°52.041 17.6186 4.256816 32.352956 -3.020363
2011-07-25 07:07:06 51°19.07 2°52.043 17.6179 4.257024 32.355351 -3.020363
2011-07-25 07:07:12 51°19.092 2°52.045 17.6155 4.257128 32.356231 -3.020363
2011-07-25 07:07:17 51°19.111 2°52.047 17.6182 4.257335 32.357357 -3.020363
2011-07-25 07:07:22 51°19.13 2°52.049 17.6157 4.257542 32.359752 -3.020363
2011-07-25 07:07:26 51°19.144 2°52.05 17.616 4.257853 32.362392 -3.020363
2011-07-25 07:07:32 51°19.167 2°52.051 17.6206 4.257853 32.362392 -3.020363
2011-07-25 07:07:37 51°19.185 2°52.052 17.6221 4.258061 32.364152 -3.020363
2011-07-25 07:07:42 51°19.204 2°52.053 17.619 4.258268 32.366548 -3.020363
2011-07-25 07:07:46 51°19.219 2°52.053 17.6191 4.258579 32.369188 -3.020363
2011-07-25 07:07:52 51°19.241 2°52.054 17.6209 4.25889 32.372464 -3.020363
2011-07-25 07:07:57 51°19.26 2°52.054 17.6234 4.259201 32.375105 -3.020363
2011-07-25 07:08:02 51°19.278 2°52.055 17.6242 4.259409 32.37623 -3.020363
2011-07-25 07:08:06 51°19.293 2°52.055 17.6251 4.259409 32.37623 -3.020363
2011-07-25 07:08:12 51°19.315 2°52.055 17.6293 4.259616 32.37799 -3.020363
2011-07-25 07:08:17 51°19.333 2°52.055 17.6375 4.259927 32.379996 -3.020363
2011-07-25 07:08:22 51°19.351 2°52.055 17.6401 4.260238 32.382001 -3.020363
2011-07-25 07:08:26 51°19.365 2°52.056 17.6462 4.266356 32.43394 -3.020363
2011-07-25 07:08:32 51°19.387 2°52.056 17.647 4.266356 32.43394 -3.020363
2011-07-25 07:08:37 51°19.406 2°52.057 17.6505 4.2676 32.443232 -3.020363
2011-07-25 07:08:42 51°19.424 2°52.058 17.6532 4.268533 32.449883 -3.020363
2011-07-25 07:08:46 51°19.439 2°52.059 17.6549 4.269466 32.455897 -3.020363
2011-07-25 07:08:52 51°19.461 2°52.062 17.658 4.270296 32.459756 -3.020363
2011-07-25 07:08:57 51°19.48 2°52.063 17.6589 4.261171 32.378488 -3.020363
2011-07-25 07:09:02 51°19.499 2°52.065 17.66 4.261171 32.378488 -3.020363
2011-07-25 07:09:07 51°19.517 2°52.067 17.6612 4.274547 32.488844 -3.020363
2011-07-25 07:09:12 51°19.536 2°52.069 17.6619 4.275895 32.497101 -3.020363
2011-07-25 07:09:17 51°19.555 2°52.071 17.6632 4.276724 32.500957 -3.020363
2011-07-25 07:09:22 51°19.573 2°52.074 17.6653 4.278176 32.511368 -3.020363
2011-07-25 07:09:26 51°19.588 2°52.075 17.6678 4.27942 32.518743 -3.020363
2011-07-25 07:09:32 51°19.61 2°52.077 17.6681 4.27942 32.518743 -3.020363
2011-07-25 07:09:37 51°19.629 2°52.078 17.6692 4.280561 32.52715 -3.020363
2011-07-25 07:09:42 51°19.647 2°52.079 17.6681 4.281701 32.534919 -3.020363
2011-07-25 07:09:46 51°19.662 2°52.08 17.6691 4.282427 32.539805 -3.020363
2011-07-25 07:09:52 51°19.684 2°52.081 17.6677 4.285538 32.564935 -3.020363
2011-07-25 07:09:57 51°19.703 2°52.083 17.6716 4.286575 32.573099 -3.020363
2011-07-25 07:10:02 51°19.721 2°52.083 17.6708 4.286575 32.573099 -3.020363
2011-07-25 07:10:06 51°19.736 2°52.083 17.6716 4.285953 32.565902 -3.020363
2011-07-25 07:10:12 51°19.757 2°52.084 17.6701 4.286679 32.570787 -3.020363
2011-07-25 07:10:17 51°19.776 2°52.084 17.6722 4.288234 32.583352 -3.020363
2011-07-25 07:10:22 51°19.794 2°52.085 17.6711 4.289064 32.589755 -3.020363
2011-07-25 07:10:26 51°19.809 2°52.085 17.6698 4.289582 32.593517 -3.020363
2011-07-25 07:10:32 51°19.831 2°52.086 17.6701 4.289582 32.593517 -3.020363
2011-07-25 07:10:37 51°19.849 2°52.086 17.6684 4.289893 32.595519 -3.020363
2011-07-25 07:10:42 51°19.868 2°52.087 17.6682 4.290308 32.598401 -3.020363
2011-07-25 07:10:46 51°19.883 2°52.087 17.669 4.290515 32.600162 -3.020363
2011-07-25 07:10:52 51°19.905 2°52.088 17.6686 4.291034 32.603924 -3.020363
2011-07-25 07:10:57 51°19.924 2°52.089 17.6696 4.290515 32.598884 -3.020363
2011-07-25 07:11:02 51°19.943 2°52.089 17.6693 4.290515 32.598884 -3.020363
2011-07-25 07:11:06 51°19.957 2°52.09 17.6704 4.289271 32.588961 -3.020363
2011-07-25 07:11:12 51°19.979 2°52.091 17.6694 4.289997 32.595761 -3.020363
2011-07-25 07:11:17 51°19.997 2°52.091 17.6694 4.290619 32.601681 -3.020363
2011-07-25 07:11:22 51°20.016 2°52.092 17.6677 4.291656 32.610483 -3.020363
2011-07-25 07:11:26 51°20.031 2°52.092 17.6645 4.291863 32.612244 -3.020363
2011-07-25 07:11:32 51°20.053 2°52.093 17.6628 4.291863 32.612244 -3.020363
2011-07-25 07:11:37 51°20.072 2°52.094 17.6577 4.291863 32.612244 -3.020363
2011-07-25 07:11:42 51°20.09 2°52.094 17.6574 4.29176 32.610725 -3.020363
2011-07-25 07:11:46 51°20.105 2°52.095 17.6573 4.29093 32.603683 -3.020363
2011-07-25 07:11:52 51°20.127 2°52.096 17.6546 4.291448 32.608084 -3.020363
2011-07-25 07:11:57 51°20.146 2°52.098 17.6546 4.291345 32.608482 -3.020363
2011-07-25 07:12:02 51°20.165 2°52.099 17.6535 4.291345 32.608482 -3.020363
2011-07-25 07:12:06 51°20.179 2°52.1 17.6509 4.291034 32.607119 -3.020363
2011-07-25 07:12:12 51°20.202 2°52.101 17.6477 4.291034 32.609036 -3.020363
2011-07-25 07:12:17 51°20.22 2°52.103 17.6478 4.290723 32.608312 -3.020363
2011-07-25 07:12:22 51°20.238 2°52.104 17.6454 4.290308 32.60543 -3.020363
2011-07-25 07:12:26 51°20.253 2°52.105 17.6454 4.28979 32.603584 -3.020363
2011-07-25 07:12:32 51°20.275 2°52.107 17.6443 4.28979 32.603584 -3.020363
2011-07-25 07:12:37 51°20.293 2°52.109 17.6452 4.289686 32.603342 -3.020363
2011-07-25 07:12:42 51°20.311 2°52.111 17.6445 4.28896 32.598457 -3.020363
2011-07-25 07:12:46 51°20.326 2°52.112 17.6436 4.289167 32.601497 -3.020363
2011-07-25 07:12:52 51°20.348 2°52.114 17.6425 4.288442 32.59725 -3.020363
2011-07-25 07:12:57 51°20.366 2°52.115 17.6401 4.288753 32.60117 -3.020363
2011-07-25 07:13:02 51°20.385 2°52.115 17.6428 4.288753 32.60117 -3.020363
2011-07-25 07:13:06 51°20.399 2°52.116 17.6423 4.288545 32.600687 -3.020363
2011-07-25 07:13:12 51°20.421 2°52.115 17.6407 4.288234 32.598685 -3.020363
2011-07-25 07:13:17 51°20.439 2°52.114 17.6398 4.288753 32.603727 -3.020363
2011-07-25 07:13:22 51°20.457 2°52.113 17.6418 4.289479 32.611171 -3.020363
2011-07-25 07:13:26 51°20.472 2°52.112 17.6393 4.290619 32.621499 -3.020363
2011-07-25 07:13:32 51°20.493 2°52.111 17.6414 4.290827 32.62454 -3.020363
2011-07-25 07:13:37 51°20.512 2°52.11 17.6395 4.290827 32.62454 -3.020363
2011-07-25 07:13:42 51°20.53 2°52.108 17.6383 4.292486 32.638634 -3.020363
2011-07-25 07:13:46 51°20.544 2°52.106 17.6401 4.293315 32.645681 -3.020363
2011-07-25 07:13:52 51°20.566 2°52.104 17.636 4.294145 32.653369 -3.020363
2011-07-25 07:13:57 51°20.584 2°52.102 17.6357 4.294767 32.658655 -3.020363
2011-07-25 07:14:02 51°20.602 2°52.1 17.6388 4.294767 32.658655 -3.020363
2011-07-25 07:14:06 51°20.616 2°52.098 17.6365 3.601435 26.847772 -3.020363
2011-07-25 07:14:12 51°20.637 2°52.097 17.6369 4.297256 32.680441 -3.020363
2011-07-25 07:14:17 51°20.654 2°52.095 17.6365 4.299019 32.69542 -3.020363
2011-07-25 07:14:22 51°20.672 2°52.095 17.6365 4.299537 32.700468 -3.020363
2011-07-25 07:14:26 51°20.686 2°52.095 17.6339 4.300263 32.707278 -3.020363
2011-07-25 07:14:32 51°20.708 2°52.095 17.6312 4.300263 32.707278 -3.020363
2011-07-25 07:14:37 51°20.726 2°52.095 17.6316 4.300678 32.711444 -3.020363
2011-07-25 07:14:42 51°20.745 2°52.096 17.6313 4.301196 32.715851 -3.020363
2011-07-25 07:14:46 51°20.759 2°52.096 17.6322 4.301507 32.718494 -3.020363
2011-07-25 07:14:52 51°20.781 2°52.097 17.633 4.302026 32.723543 -3.020363
2011-07-25 07:14:57 51°20.798 2°52.098 17.6331 4.302233 32.725306 -3.020363
2011-07-25 07:15:02 51°20.816 2°52.099 17.6326 4.302233 32.725306 -3.020363
2011-07-25 07:15:06 51°20.831 2°52.099 17.6327 4.302648 32.730115 -3.020363
2011-07-25 07:15:12 51°20.852 2°52.099 17.6309 4.303063 32.734925 -3.020363
2011-07-25 07:15:17 51°20.871 2°52.099 17.6311 4.30327 32.73733 -3.020363
2011-07-25 07:15:22 51°20.889 2°52.098 17.628 4.303374 32.738212 -3.020363
2011-07-25 07:15:26 51°20.903 2°52.098 17.6276 4.303374 32.738212 -3.020363
2011-07-25 07:15:32 51°20.925 2°52.097 17.6276 4.303374 32.738212 -3.020363
2011-07-25 07:15:37 51°20.943 2°52.096 17.6304 4.303685 32.740214 -3.020363
2011-07-25 07:15:42 51°20.962 2°52.095 17.6296 4.303996 32.743501 -3.020363
2011-07-25 07:15:46 51°20.976 2°52.094 17.6273 4.304515 32.748551 -3.020363
2011-07-25 07:15:52 51°20.998 2°52.092 17.6291 4.304929 32.752719 -3.020363
2011-07-25 07:15:57 51°21.016 2°52.09 17.627 4.305241 32.756649 -3.020363
2011-07-25 07:16:02 51°21.034 2°52.089 17.6274 4.305241 32.756649 -3.020363
2011-07-25 07:16:06 51°21.048 2°52.087 17.6302 4.305344 32.757531 -3.020363
2011-07-25 07:16:12 51°21.07 2°52.086 17.6293 4.305448 32.758413 -3.020363
2011-07-25 07:16:17 51°21.088 2°52.085 17.6315 4.305448 32.759055 -3.020363
2011-07-25 07:16:22 51°21.107 2°52.083 17.628 4.305552 32.759937 -3.020363
2011-07-25 07:16:26 51°21.121 2°52.083 17.6297 4.305448 32.759698 -3.020363
2011-07-25 07:16:32 51°21.143 2°52.082 17.6271 4.305448 32.759698 -3.020363
2011-07-25 07:16:37 51°21.161 2°52.081 17.6267 4.305344 32.758817 -3.020363
2011-07-25 07:16:42 51°21.179 2°52.081 17.6269 4.305241 32.757292 -3.020363
2011-07-25 07:16:46 51°21.194 2°52.081 17.6267 4.305241 32.756649 -3.020363
2011-07-25 07:16:52 51°21.216 2°52.082 17.6279 4.304826 32.753123 -3.020363
2011-07-25 07:16:57 51°21.234 2°52.083 17.629 4.305344 32.757531 -3.020363
2011-07-25 07:17:02 51°21.253 2°52.083 17.6278 4.305344 32.757531 -3.020363
2011-07-25 07:17:06 51°21.268 2°52.084 17.6302 4.305344 32.757531 -3.020363
2011-07-25 07:17:12 51°21.29 2°52.085 17.6304 4.305448 32.759055 -3.020363
2011-07-25 07:17:17 51°21.309 2°52.086 17.6272 4.305448 32.759698 -3.020363
2011-07-25 07:17:22 51°21.327 2°52.087 17.6306 4.305448 32.759698 -3.020363
2011-07-25 07:17:26 51°21.342 2°52.088 17.629 4.305448 32.759698 -3.020363
2011-07-25 07:17:32 51°21.364 2°52.088 17.6307 4.305448 32.759698 -3.020363
2011-07-25 07:17:37 51°21.382 2°52.088 17.6298 4.305552 32.759937 -3.020363
2011-07-25 07:17:42 51°21.4 2°52.089 17.6314 4.305759 32.7617 -3.020363
2011-07-25 07:17:46 51°21.415 2°52.089 17.6324 4.305759 32.7617 -3.020363
2011-07-25 07:17:52 51°21.437 2°52.09 17.6297 4.305966 32.763464 -3.020363
2011-07-25 07:17:57 51°21.455 2°52.09 17.6307 4.306278 32.765466 -3.020363
2011-07-25 07:18:02 51°21.474 2°52.09 17.6296 4.306278 32.765466 -3.020363
2011-07-25 07:18:06 51°21.489 2°52.089 17.6327 4.306485 32.767229 -3.020363
2011-07-25 07:18:12 51°21.511 2°52.088 17.6316 4.306796 32.769874 -3.020363
2011-07-25 07:18:17 51°21.529 2°52.087 17.6325 4.307107 32.771876 -3.020363
2011-07-25 07:18:22 51°21.548 2°52.086 17.6306 4.307315 32.773639 -3.020363
2011-07-25 07:18:26 51°21.563 2°52.084 17.6303 4.307729 32.777166 -3.020363
2011-07-25 07:18:32 51°21.585 2°52.082 17.6293 4.307729 32.777166 -3.020363
2011-07-25 07:18:37 51°21.603 2°52.08 17.6322 4.308144 32.780693 -3.020363
2011-07-25 07:18:42 51°21.621 2°52.078 17.6319 4.308351 32.782456 -3.020363
2011-07-25 07:18:46 51°21.636 2°52.078 17.6299 4.308663 32.784458 -3.020363
2011-07-25 07:18:52 51°21.658 2°52.076 17.6303 4.30887 32.786222 -3.020363
2011-07-25 07:18:57 51°21.676 2°52.075 17.6327 4.309077 32.788628 -3.020363
2011-07-25 07:19:02 51°21.695 2°52.074 17.6284 4.309077 32.788628 -3.020363
2011-07-25 07:19:06 51°21.71 2°52.074 17.6276 4.309285 32.790392 -3.020363
2011-07-25 07:19:12 51°21.732 2°52.074 17.627 4.309285 32.790392 -3.020363
2011-07-25 07:19:17 51°21.75 2°52.074 17.628 4.309181 32.788867 -3.020363
2011-07-25 07:19:22 51°21.769 2°52.074 17.6302 4.309077 32.787985 -3.020363
2011-07-25 07:19:26 51°21.784 2°52.074 17.6298 4.309077 32.787342 -3.020363
2011-07-25 07:19:32 51°21.806 2°52.074 17.6272 4.309077 32.787342 -3.020363
2011-07-25 07:19:37 51°21.825 2°52.075 17.6257 4.309077 32.787985 -3.020363
2011-07-25 07:19:42 51°21.843 2°52.075 17.6271 4.309077 32.789272 -3.020363
2011-07-25 07:19:46 51°21.858 2°52.076 17.6256 4.308974 32.789033 -3.020363
2011-07-25 07:19:52 51°21.881 2°52.077 17.626 4.308766 32.78727 -3.020363
2011-07-25 07:19:57 51°21.9 2°52.078 17.6259 4.308663 32.785745 -3.020363
2011-07-25 07:20:02 51°21.918 2°52.079 17.6263 4.308663 32.785745 -3.020363
2011-07-25 07:20:06 51°21.933 2°52.08 17.6277 4.308352 32.783743 -3.020363
2011-07-25 07:20:12 51°21.956 2°52.081 17.6256 4.308455 32.785268 -3.020363
2011-07-25 07:20:17 51°21.974 2°52.081 17.6263 4.308248 32.783504 -3.020363
2011-07-25 07:20:22 51°21.992 2°52.082 17.6272 4.308144 32.783266 -3.020363
2011-07-25 07:20:26 51°22.007 2°52.081 17.6272 4.30804 32.782384 -3.020363
2011-07-25 07:20:32 51°22.029 2°52.081 17.6263 4.30804 32.782384 -3.020363
2011-07-25 07:20:37 51°22.047 2°52.08 17.6254 4.307937 32.782146 -3.020363
2011-07-25 07:20:42 51°22.066 2°52.079 17.6238 4.307833 32.781264 -3.020363
2011-07-25 07:20:46 51°22.081 2°52.078 17.6243 4.307729 32.780382 -3.020363
2011-07-25 07:20:52 51°22.103 2°52.077 17.6225 4.307626 32.7795 -3.020363
2011-07-25 07:20:57 51°22.122 2°52.075 17.623 4.307626 32.778857 -3.020363
2011-07-25 07:21:02 51°22.14 2°52.073 17.6228 4.307626 32.778857 -3.020363
2011-07-25 07:21:06 51°22.155 2°52.073 17.6201 4.307522 32.777975 -3.020363
2011-07-25 07:21:12 51°22.178 2°52.071 17.6189 4.307522 32.779262 -3.020363
2011-07-25 07:21:17 51°22.196 2°52.07 17.6203 4.307522 32.779905 -3.020363
2011-07-25 07:21:22 51°22.215 2°52.07 17.6201 4.307418 32.779666 -3.020363
2011-07-25 07:21:26 51°22.23 2°52.07 17.6198 4.307315 32.778784 -3.020363
2011-07-25 07:21:32 51°22.252 2°52.069 17.6207 4.307315 32.778784 -3.020363
2011-07-25 07:21:37 51°22.271 2°52.069 17.6193 4.307211 32.777903 -3.020363
2011-07-25 07:21:42 51°22.29 2°52.069 17.6153 4.307211 32.778546 -3.020363
2011-07-25 07:21:46 51°22.305 2°52.069 17.6173 4.307107 32.778307 -3.020363
2011-07-25 07:21:52 51°22.327 2°52.069 17.6171 4.307004 32.778069 -3.020363
2011-07-25 07:21:57 51°22.346 2°52.069 17.6184 4.3069 32.777187 -3.020363
2011-07-25 07:22:02 51°22.364 2°52.069 17.6211 4.3069 32.777187 -3.020363
2011-07-25 07:22:07 51°22.383 2°52.069 17.6151 4.3069 32.777187 -3.020363
2011-07-25 07:22:12 51°22.402 2°52.069 17.6134 4.306796 32.776948 -3.020363
2011-07-25 07:22:17 51°22.42 2°52.07 17.6147 4.306796 32.777592 -3.020363
2011-07-25 07:22:22 51°22.439 2°52.069 17.6188 4.306796 32.778235 -3.020363
2011-07-25 07:22:26 51°22.454 2°52.069 17.6188 4.306796 32.778878 -3.020363
2011-07-25 07:22:32 51°22.476 2°52.07 17.6158 4.306796 32.778878 -3.020363
2011-07-25 07:22:37 51°22.495 2°52.069 17.616 4.306796 32.778878 -3.020363
2011-07-25 07:22:42 51°22.513 2°52.07 17.6151 4.306796 32.778235 -3.020363
2011-07-25 07:22:46 51°22.528 2°52.07 17.6128 4.3069 32.780403 -3.020363
2011-07-25 07:22:52 51°22.55 2°52.07 17.6119 4.307004 32.781929 -3.020363
2011-07-25 07:22:57 51°22.569 2°52.069 17.6104 4.307107 32.781524 -3.020363
2011-07-25 07:23:02 51°22.587 2°52.07 17.6078 4.307107 32.781524 -3.020363
2011-07-25 07:23:06 51°22.602 2°52.069 17.6086 4.307315 32.783931 -3.020363
2011-07-25 07:23:12 51°22.625 2°52.069 17.6053 4.307522 32.785695 -3.020363
2011-07-25 07:23:17 51°22.643 2°52.069 17.607 4.307729 32.788103 -3.020363
2011-07-25 07:23:22 51°22.662 2°52.07 17.6059 4.308041 32.791392 -3.020363
2011-07-25 07:23:26 51°22.677 2°52.07 17.6057 4.308559 32.797734 -3.020363
2011-07-25 07:23:32 51°22.7 2°52.071 17.6019 4.308559 32.797734 -3.020363
2011-07-25 07:23:37 51°22.719 2°52.072 17.6025 4.308974 32.801906 -3.020363
2011-07-25 07:23:42 51°22.738 2°52.073 17.5992 4.309389 32.806723 -3.020363
2011-07-25 07:23:46 51°22.753 2°52.073 17.597 4.309907 32.812422 -3.020363
2011-07-25 07:23:52 51°22.776 2°52.074 17.5952 4.310322 32.816595 -3.020363
2011-07-25 07:23:57 51°22.794 2°52.075 17.5941 4.311048 32.822771 -3.020363
2011-07-25 07:24:02 51°22.813 2°52.076 17.5923 4.311048 32.822771 -3.020363
2011-07-25 07:24:06 51°22.829 2°52.077 17.5904 4.311878 32.831118 -3.020363
2011-07-25 07:24:12 51°22.851 2°52.078 17.5902 4.312811 32.840349 -3.020363
2011-07-25 07:24:17 51°22.87 2°52.079 17.5915 4.313433 32.846934 -3.020363
2011-07-25 07:24:22 51°22.889 2°52.079 17.5927 4.314055 32.854164 -3.020363
2011-07-25 07:24:27 51°22.907 2°52.079 17.5908 4.314678 32.86075 -3.020363
2011-07-25 07:24:32 51°22.926 2°52.079 17.59 4.314678 32.86075 -3.020363
2011-07-25 07:24:37 51°22.944 2°52.078 17.5891 4.315092 32.866217 -3.020363
2011-07-25 07:24:42 51°22.962 2°52.077 17.592 4.3153 32.869273 -3.020363
2011-07-25 07:24:46 51°22.977 2°52.076 17.5916 4.315611 32.873213 -3.020363
2011-07-25 07:24:52 51°22.999 2°52.075 17.5969 4.315818 32.874978 -3.020363
2011-07-25 07:24:57 51°23.017 2°52.073 17.5984 4.316233 32.879155 -3.020363
2011-07-25 07:25:02 51°23.035 2°52.072 17.6002 4.316233 32.879155 -3.020363
2011-07-25 07:25:06 51°23.05 2°52.071 17.6025 4.316855 32.885098 -3.020363
2011-07-25 07:25:12 51°23.072 2°52.069 17.6059 4.317581 32.891924 -3.020363
2011-07-25 07:25:17 51°23.091 2°52.068 17.6092 4.318307 32.898105 -3.020363
2011-07-25 07:25:22 51°23.109 2°52.067 17.6113 4.319966 32.911585 -3.020363
2011-07-25 07:25:26 51°23.124 2°52.066 17.6136 4.321729 32.925303 -3.020363
2011-07-25 07:25:32 51°23.146 2°52.065 17.6132 4.321729 32.925303 -3.020363
2011-07-25 07:25:37 51°23.164 2°52.064 17.6147 4.324322 32.945437 -3.020363
2011-07-25 07:25:42 51°23.183 2°52.063 17.6168 4.326811 32.964041 -3.020363
2011-07-25 07:25:46 51°23.198 2°52.062 17.6172 4.329714 32.986824 -3.020363
2011-07-25 07:25:52 51°23.22 2°52.061 17.6187 4.332514 33.008076 -3.020363
2011-07-25 07:25:57 51°23.238 2°52.06 17.6205 4.334692 33.024029 -3.020363
2011-07-25 07:26:02 51°23.257 2°52.06 17.6227 4.334692 33.024029 -3.020363
2011-07-25 07:26:06 51°23.272 2°52.059 17.6231 4.337388 33.045694 -3.020363
2011-07-25 07:26:12 51°23.294 2°52.059 17.6227 4.339462 33.061411 -3.020363
2011-07-25 07:26:17 51°23.313 2°52.06 17.6236 4.341432 33.076894 -3.020363
2011-07-25 07:26:22 51°23.331 2°52.059 17.6258 4.343403 33.092377 -3.020363
2011-07-25 07:26:26 51°23.346 2°52.06 17.6231 4.342781 33.085778 -3.020363
2011-07-25 07:26:32 51°23.369 2°52.06 17.6245 4.342781 33.085778 -3.020363
2011-07-25 07:26:37 51°23.387 2°52.061 17.6242 4.345684 33.10921 -3.020363
2011-07-25 07:26:42 51°23.406 2°52.061 17.624 4.346099 33.111444 -3.020363
2011-07-25 07:26:46 51°23.421 2°52.062 17.6248 4.347758 33.124926 -3.020363
2011-07-25 07:26:52 51°23.443 2°52.062 17.624 4.348692 33.131576 -3.020363
2011-07-25 07:26:57 51°23.462 2°52.062 17.6249 4.349314 33.136876 -3.020363
2011-07-25 07:27:02 51°23.481 2°52.062 17.6261 4.349314 33.136876 -3.020363
2011-07-25 07:27:06 51°23.495 2°52.062 17.6261 4.350766 33.148592 -3.020363
2011-07-25 07:27:12 51°23.517 2°52.062 17.6249 4.351284 33.152358 -3.020363
2011-07-25 07:27:17 51°23.536 2°52.061 17.6255 4.352529 33.162959 -3.020363
2011-07-25 07:27:22 51°23.555 2°52.061 17.6255 4.353462 33.17091 -3.020363
2011-07-25 07:27:26 51°23.569 2°52.06 17.6263 4.354188 33.177095 -3.020363
2011-07-25 07:27:32 51°23.591 2°52.058 17.6259 4.354188 33.177095 -3.020363
2011-07-25 07:27:37 51°23.61 2°52.057 17.626 4.354396 33.17821 -3.020363
2011-07-25 07:27:42 51°23.628 2°52.055 17.6266 4.355225 33.185278 -3.020363
2011-07-25 07:27:46 51°23.643 2°52.053 17.6257 4.35647 33.19588 -3.020363
2011-07-25 07:27:52 51°23.665 2°52.051 17.6252 4.357403 33.203833 -3.020363
2011-07-25 07:27:57 51°23.683 2°52.049 17.6252 4.35844 33.212668 -3.020363
2011-07-25 07:28:02 51°23.701 2°52.047 17.6246 4.358959 33.217087 -3.020363
2011-07-25 07:28:06 51°23.716 2°52.045 17.6256 4.358959 33.217087 -3.020363
2011-07-25 07:28:12 51°23.738 2°52.042 17.6263 4.360411 33.228806 -3.020363
2011-07-25 07:28:17 51°23.756 2°52.04 17.6266 4.361137 33.234991 -3.020363
2011-07-25 07:28:22 51°23.775 2°52.038 17.6269 4.361655 33.23941 -3.020363
2011-07-25 07:28:26 51°23.789 2°52.035 17.6294 4.363003 33.250899 -3.020363
2011-07-25 07:28:32 51°23.811 2°52.034 17.6295 4.363003 33.250899 -3.020363
2011-07-25 07:28:37 51°23.83 2°52.033 17.6286 4.363833 33.258622 -3.020363
2011-07-25 07:28:42 51°23.848 2°52.032 17.633 4.364144 33.261273 -3.020363
2011-07-25 07:28:47 51°23.866 2°52.031 17.6304 4.365285 33.270995 -3.020363
2011-07-25 07:28:52 51°23.885 2°52.03 17.6337 4.365907 33.275645 -3.020363
2011-07-25 07:28:57 51°23.903 2°52.03 17.6344 4.36653 33.280295 -3.020363
2011-07-25 07:29:02 51°23.922 2°52.029 17.6338 4.36653 33.280295 -3.020363
2011-07-25 07:29:06 51°23.936 2°52.028 17.6333 4.366115 33.275454 -3.020363
2011-07-25 07:29:12 51°23.958 2°52.027 17.6351 4.366944 33.282524 -3.020363
2011-07-25 07:29:17 51°23.976 2°52.027 17.6364 4.368293 33.292708 -3.020363
2011-07-25 07:29:22 51°23.994 2°52.026 17.6383 4.3685 33.294476 -3.020363
2011-07-25 07:29:26 51°24.009 2°52.026 17.6369 4.369537 33.302007 -3.020363
2011-07-25 07:29:32 51°24.03 2°52.026 17.6379 4.370989 33.313728 -3.020363
2011-07-25 07:29:37 51°24.048 2°52.025 17.639 4.370989 33.313728 -3.020363
2011-07-25 07:29:42 51°24.066 2°52.025 17.6413 4.372026 33.322567 -3.020363
2011-07-25 07:29:46 51°24.081 2°52.025 17.6402 4.372337 33.324565 -3.020363
2011-07-25 07:29:52 51°24.102 2°52.024 17.6405 4.373063 33.329445 -3.020363
2011-07-25 07:29:57 51°24.12 2°52.022 17.6412 4.373374 33.330788 -3.020363
2011-07-25 07:30:02 51°24.138 2°52.021 17.6398 4.373374 33.330788 -3.020363
2011-07-25 07:30:06 51°24.152 2°52.02 17.6395 4.3741 33.336976 -3.020363
2011-07-25 07:30:12 51°24.174 2°52.018 17.6416 4.374515 33.339857 -3.020363
2011-07-25 07:30:17 51°24.192 2°52.015 17.6419 4.374204 33.335897 -3.020363
2011-07-25 07:30:22 51°24.211 2°52.014 17.6409 4.375241 33.344082 -3.020363
2011-07-25 07:30:26 51°24.225 2°52.012 17.6414 4.375863 33.349386 -3.020363
2011-07-25 07:30:32 51°24.247 2°52.009 17.6432 4.375863 33.349386 -3.020363
2011-07-25 07:30:37 51°24.265 2°52.006 17.6422 4.375967 33.350269 -3.020363
2011-07-25 07:30:42 51°24.283 2°52.003 17.6424 4.37576 33.348502 -3.020363
2011-07-25 07:30:46 51°24.297 2°52.002 17.6435 4.377004 33.359109 -3.020363
2011-07-25 07:30:52 51°24.319 2°51.999 17.6419 4.377004 33.358454 -3.020363
2011-07-25 07:30:57 51°24.336 2°51.998 17.6425 4.377108 33.359338 -3.020363
2011-07-25 07:31:02 51°24.354 2°51.996 17.6452 4.377108 33.359338 -3.020363
2011-07-25 07:31:06 51°24.368 2°51.995 17.643 4.37773 33.363987 -3.020363
2011-07-25 07:31:12 51°24.39 2°51.993 17.6438 4.377938 33.364446 -3.020363
2011-07-25 07:31:17 51°24.407 2°51.991 17.6438 4.378041 33.36533 -3.020363
2011-07-25 07:31:22 51°24.425 2°51.99 17.6432 4.378767 33.371518 -3.020363
2011-07-25 07:31:26 51°24.44 2°51.989 17.6437 4.379286 33.375937 -3.020363
2011-07-25 07:31:32 51°24.461 2°51.986 17.6439 4.379286 33.375937 -3.020363
2011-07-25 07:31:37 51°24.479 2°51.985 17.6434 4.379286 33.375283 -3.020363
2011-07-25 07:31:42 51°24.497 2°51.984 17.6429 4.379493 33.377051 -3.020363
2011-07-25 07:31:46 51°24.512 2°51.983 17.6424 4.378975 33.372631 -3.020363
2011-07-25 07:31:52 51°24.534 2°51.982 17.6437 4.378871 33.371092 -3.020363
2011-07-25 07:31:57 51°24.553 2°51.982 17.6443 4.379701 33.378819 -3.020363
2011-07-25 07:32:02 51°24.572 2°51.981 17.6414 4.379701 33.378819 -3.020363
2011-07-25 07:32:06 51°24.587 2°51.982 17.6427 4.377938 33.363137 -3.020363
2011-07-25 07:32:12 51°24.609 2°51.981 17.6441 4.380116 33.382354 -3.020363
2011-07-25 07:32:17 51°24.628 2°51.981 17.6429 4.380427 33.385006 -3.020363
2011-07-25 07:32:22 51°24.647 2°51.981 17.644 4.379493 33.377051 -3.020363
2011-07-25 07:32:26 51°24.662 2°51.981 17.643 4.38053 33.385235 -3.020363
2011-07-25 07:32:32 51°24.684 2°51.98 17.6427 4.38053 33.385235 -3.020363
2011-07-25 07:32:37 51°24.702 2°51.98 17.6429 4.380012 33.380816 -3.020363
2011-07-25 07:32:42 51°24.72 2°51.979 17.6452 4.380634 33.386119 -3.020363
2011-07-25 07:32:46 51°24.734 2°51.978 17.6434 4.380219 33.383238 -3.020363
2011-07-25 07:32:52 51°24.756 2°51.977 17.6447 4.380634 33.386119 -3.020363
2011-07-25 07:32:57 51°24.774 2°51.975 17.644 4.379908 33.379932 -3.020363
2011-07-25 07:33:02 51°24.792 2°51.975 17.6441 4.379908 33.379932 -3.020363
2011-07-25 07:33:06 51°24.807 2°51.975 17.6438 4.380738 33.387003 -3.020363
2011-07-25 07:33:12 51°24.83 2°51.974 17.6439 4.38053 33.38589 -3.020363
2011-07-25 07:33:17 51°24.848 2°51.974 17.6434 4.380738 33.387003 -3.020363
2011-07-25 07:33:22 51°24.866 2°51.974 17.6439 4.38053 33.385235 -3.020363
2011-07-25 07:33:26 51°24.881 2°51.974 17.6458 4.380219 33.382583 -3.020363
2011-07-25 07:33:32 51°24.904 2°51.975 17.645 4.380219 33.382583 -3.020363
2011-07-25 07:33:37 51°24.922 2°51.975 17.6452 4.380738 33.386348 -3.020363
2011-07-25 07:33:42 51°24.941 2°51.976 17.6427 4.38053 33.38458 -3.020363
2011-07-25 07:33:46 51°24.956 2°51.977 17.6439 4.379286 33.373973 -3.020363
2011-07-25 07:33:52 51°24.978 2°51.979 17.6446 4.380427 33.383696 -3.020363
2011-07-25 07:33:57 51°24.997 2°51.981 17.6412 4.380323 33.382813 -3.020363
2011-07-25 07:34:02 51°25.016 2°51.982 17.6418 4.380323 33.382813 -3.020363
2011-07-25 07:34:06 51°25.031 2°51.984 17.6394 4.380219 33.381929 -3.020363
2011-07-25 07:34:12 51°25.053 2°51.987 17.6394 4.380116 33.38039 -3.020363
2011-07-25 07:34:17 51°25.072 2°51.989 17.6369 4.379286 33.373973 -3.020363
2011-07-25 07:34:22 51°25.09 2°51.991 17.6373 4.379908 33.379277 -3.020363
2011-07-25 07:34:26 51°25.105 2°51.993 17.6361 4.378249 33.365789 -3.020363
2011-07-25 07:34:32 51°25.127 2°51.995 17.6371 4.378249 33.365789 -3.020363
2011-07-25 07:34:37 51°25.145 2°51.997 17.6332 4.37939 33.375512 -3.020363
2011-07-25 07:34:42 51°25.164 2°51.999 17.6328 4.379078 33.37417 -3.020363
2011-07-25 07:34:46 51°25.179 2°52.001 17.631 4.378871 33.373056 -3.020363
2011-07-25 07:34:52 51°25.201 2°52.002 17.6302 4.37856 33.371059 -3.020363
2011-07-25 07:34:57 51°25.22 2°52.003 17.6281 4.378249 33.369717 -3.020363
2011-07-25 07:35:02 51°25.238 2°52.003 17.6283 4.377938 33.36772 -3.020363
2011-07-25 07:35:06 51°25.253 2°52.003 17.6259 4.377938 33.36772 -3.020363
2011-07-25 07:35:12 51°25.275 2°52.003 17.6263 4.377627 33.365722 -3.020363
2011-07-25 07:35:17 51°25.294 2°52.003 17.6234 4.376901 33.360843 -3.020363
2011-07-25 07:35:22 51°25.313 2°52.003 17.6247 4.376175 33.356619 -3.020363
2011-07-25 07:35:26 51°25.327 2°52.002 17.6223 4.376382 33.359042 -3.020363
2011-07-25 07:35:32 51°25.349 2°52.003 17.6231 4.376382 33.359042 -3.020363
2011-07-25 07:35:37 51°25.367 2°52.004 17.6201 4.375864 33.355931 -3.020363
2011-07-25 07:35:42 51°25.386 2°52.004 17.6189 4.375345 33.352165 -3.020363
2011-07-25 07:35:46 51°25.401 2°52.005 17.6161 4.375034 33.350822 -3.020363
2011-07-25 07:35:52 51°25.423 2°52.006 17.6152 4.374204 33.344403 -3.020363
2011-07-25 07:35:57 51°25.442 2°52.007 17.6132 4.374204 33.345712 -3.020363
2011-07-25 07:36:02 51°25.46 2°52.01 17.6144 4.374204 33.345712 -3.020363
2011-07-25 07:36:07 51°25.478 2°52.012 17.6114 4.373374 33.339294 -3.020363
2011-07-25 07:36:11 51°25.493 2°52.014 17.6109 4.373271 33.339064 -3.020363
2011-07-25 07:36:17 51°25.515 2°52.016 17.6125 4.372856 33.336836 -3.020363
2011-07-25 07:36:22 51°25.534 2°52.018 17.6075 4.372441 33.334608 -3.020363
2011-07-25 07:36:27 51°25.553 2°52.019 17.6045 4.3713 33.326191 -3.020363
2011-07-25 07:36:32 51°25.571 2°52.021 17.6049 4.3713 33.326191 -3.020363
2011-07-25 07:36:37 51°25.589 2°52.023 17.6049 4.371404 33.328384 -3.020363
2011-07-25 07:36:42 51°25.608 2°52.025 17.6055 4.370886 33.325271 -3.020363
2011-07-25 07:36:46 51°25.623 2°52.026 17.6027 4.369745 33.316853 -3.020363
2011-07-25 07:36:52 51°25.645 2°52.029 17.6033 4.368708 33.308665 -3.020363
2011-07-25 07:36:57 51°25.664 2°52.031 17.6025 4.369745 33.318816 -3.020363
2011-07-25 07:37:02 51°25.682 2°52.032 17.6022 4.369745 33.318816 -3.020363
2011-07-25 07:37:06 51°25.697 2°52.033 17.6031 4.368397 33.309282 -3.020363
2011-07-25 07:37:12 51°25.72 2°52.034 17.6014 4.367567 33.303516 -3.020363
2011-07-25 07:37:17 51°25.739 2°52.035 17.6013 4.368085 33.308592 -3.020363
2011-07-25 07:37:22 51°25.758 2°52.036 17.6001 4.368397 33.311899 -3.020363
2011-07-25 07:37:27 51°25.776 2°52.036 17.5991 4.367671 33.306363 -3.020363
2011-07-25 07:37:32 51°25.795 2°52.037 17.5998 4.367671 33.306363 -3.020363
2011-07-25 07:37:37 51°25.814 2°52.037 17.6005 4.368086 33.310554 -3.020363
2011-07-25 07:37:42 51°25.832 2°52.036 17.6016 4.367774 33.307901 -3.020363
2011-07-25 07:37:46 51°25.847 2°52.037 17.6002 4.367256 33.304133 -3.020363
2011-07-25 07:37:52 51°25.87 2°52.036 17.6003 4.367878 33.310094 -3.020363
2011-07-25 07:37:57 51°25.888 2°52.036 17.6033 4.367878 33.310748 -3.020363
2011-07-25 07:38:02 51°25.907 2°52.035 17.6024 4.367878 33.310748 -3.020363
2011-07-25 07:38:06 51°25.922 2°52.035 17.604 4.367567 33.308749 -3.020363
2011-07-25 07:38:12 51°25.943 2°52.035 17.6023 4.367463 33.307865 -3.020363
2011-07-25 07:38:17 51°25.962 2°52.036 17.6033 4.366737 33.301674 -3.020363
2011-07-25 07:38:22 51°25.98 2°52.036 17.6066 4.367982 33.311633 -3.020363
2011-07-25 07:38:26 51°25.995 2°52.036 17.6049 4.36736 33.306326 -3.020363
2011-07-25 07:38:32 51°26.018 2°52.037 17.6022 4.36736 33.306326 -3.020363
2011-07-25 07:38:37 51°26.037 2°52.038 17.6021 4.368915 33.318938 -3.020363
2011-07-25 07:38:42 51°26.056 2°52.04 17.6045 4.368915 33.318284 -3.020363
2011-07-25 07:38:46 51°26.071 2°52.041 17.6053 4.36933 33.321822 -3.020363
2011-07-25 07:38:52 51°26.093 2°52.043 17.6049 4.369952 33.326474 -3.020363
2011-07-25 07:38:57 51°26.112 2°52.043 17.6049 4.369745 33.32405 -3.020363
2011-07-25 07:39:02 51°26.131 2°52.045 17.605 4.369745 33.32405 -3.020363
2011-07-25 07:39:06 51°26.146 2°52.046 17.6064 4.370471 33.330242 -3.020363
2011-07-25 07:39:12 51°26.169 2°52.047 17.6087 4.370886 33.334434 -3.020363
2011-07-25 07:39:17 51°26.187 2°52.047 17.6091 4.37016 33.328243 -3.020363
2011-07-25 07:39:22 51°26.206 2°52.049 17.6094 4.372027 33.344164 -3.020363
2011-07-25 07:39:26 51°26.221 2°52.049 17.6105 4.372545 33.347931 -3.020363
2011-07-25 07:39:32 51°26.243 2°52.05 17.6111 4.372545 33.347931 -3.020363
2011-07-25 07:39:37 51°26.261 2°52.051 17.6143 4.373167 33.353239 -3.020363
2011-07-25 07:39:42 51°26.279 2°52.051 17.6125 4.373582 33.356122 -3.020363
2011-07-25 07:39:46 51°26.294 2°52.051 17.6146 4.373997 33.359005 -3.020363
2011-07-25 07:39:52 51°26.316 2°52.052 17.6132 4.374412 33.361233 -3.020363
2011-07-25 07:39:57 51°26.334 2°52.052 17.613 4.374827 33.364116 -3.020363
2011-07-25 07:40:02 51°26.352 2°52.053 17.6129 4.374827 33.364116 -3.020363
2011-07-25 07:40:06 51°26.367 2°52.054 17.6132 4.375242 33.366999 -3.020363
2011-07-25 07:40:12 51°26.39 2°52.055 17.6117 4.375656 33.369226 -3.020363
2011-07-25 07:40:17 51°26.408 2°52.056 17.6138 4.376071 33.372109 -3.020363
2011-07-25 07:40:22 51°26.427 2°52.058 17.616 4.37659 33.375876 -3.020363
2011-07-25 07:40:26 51°26.442 2°52.059 17.6167 4.376901 33.378529 -3.020363
2011-07-25 07:40:32 51°26.463 2°52.06 17.6177 4.376901 33.378529 -3.020363
2011-07-25 07:40:37 51°26.481 2°52.063 17.6185 4.377419 33.382952 -3.020363
2011-07-25 07:40:42 51°26.499 2°52.063 17.6188 4.377834 33.385835 -3.020363
2011-07-25 07:40:46 51°26.511 2°52.065 17.6191 4.378353 33.390257 -3.020363
2011-07-25 07:40:52 51°26.529 2°52.067 17.6212 4.378768 33.393795 -3.020363
2011-07-25 07:40:57 51°26.542 2°52.069 17.6223 4.37939 33.397791 -3.020363
2011-07-25 07:41:02 51°26.555 2°52.071 17.6217 4.37939 33.397791 -3.020363
2011-07-25 07:41:06 51°26.565 2°52.072 17.6229 4.379908 33.401558 -3.020363
2011-07-25 07:41:12 51°26.578 2°52.074 17.6211 4.380427 33.405325 -3.020363
2011-07-25 07:41:17 51°26.589 2°52.076 17.6223 4.381153 33.410205 -3.020363
2011-07-25 07:41:22 51°26.599 2°52.078 17.6212 4.381568 33.413087 -3.020363
2011-07-25 07:41:26 51°26.606 2°52.08 17.6217 4.382086 33.416198 -3.020363
2011-07-25 07:41:32 51°26.617 2°52.082 17.6205 4.382086 33.416198 -3.020363
2011-07-25 07:41:37 51°26.626 2°52.082 17.6227 4.382605 33.419964 -3.020363
2011-07-25 07:41:42 51°26.634 2°52.083 17.6208 4.382916 33.422618 -3.020363
2011-07-25 07:41:46 51°26.64 2°52.083 17.6217 4.383538 33.427269 -3.020363
2011-07-25 07:41:52 51°26.649 2°52.082 17.6224 4.38385 33.429923 -3.020363
2011-07-25 07:41:57 51°26.656 2°52.08 17.6232 4.384057 33.431692 -3.020363
2011-07-25 07:42:02 51°26.663 2°52.078 17.6217 4.384057 33.431692 -3.020363
2011-07-25 07:42:06 51°26.668 2°52.076 17.6208 4.384264 33.434117 -3.020363
2011-07-25 07:42:12 51°26.675 2°52.072 17.6213 4.384368 33.435002 -3.020363
2011-07-25 07:42:17 51°26.68 2°52.068 17.6213 4.384368 33.435002 -3.020363
2011-07-25 07:42:22 51°26.686 2°52.064 17.622 4.384472 33.435886 -3.020363
2011-07-25 07:42:26 51°26.689 2°52.059 17.6223 4.38385 33.430579 -3.020363
2011-07-25 07:42:32 51°26.695 2°52.053 17.6221 4.38385 33.430579 -3.020363
2011-07-25 07:42:37 51°26.698 2°52.047 17.6219 4.384576 33.436771 -3.020363
2011-07-25 07:42:42 51°26.701 2°52.04 17.6228 4.384679 33.438312 -3.020363
2011-07-25 07:42:46 51°26.704 2°52.035 17.6226 4.384783 33.439197 -3.020363
2011-07-25 07:42:52 51°26.707 2°52.027 17.6226 4.384783 33.439197 -3.020363
2011-07-25 07:42:57 51°26.709 2°52.02 17.6213 4.384783 33.439197 -3.020363
2011-07-25 07:43:02 51°26.711 2°52.012 17.6223 4.384783 33.439197 -3.020363
2011-07-25 07:43:06 51°26.713 2°52.006 17.6217 4.384783 33.43854 -3.020363
2011-07-25 07:43:12 51°26.714 2°51.997 17.622 4.384783 33.43854 -3.020363
2011-07-25 07:43:17 51°26.716 2°51.99 17.6219 4.384887 33.439425 -3.020363
2011-07-25 07:43:22 51°26.717 2°51.983 17.6219 4.384887 33.439425 -3.020363
2011-07-25 07:43:26 51°26.718 2°51.978 17.6203 4.38499 33.440309 -3.020363
2011-07-25 07:43:32 51°26.719 2°51.973 17.6205 4.38499 33.440309 -3.020363
2011-07-25 07:43:37 51°26.72 2°51.97 17.621 4.385094 33.441194 -3.020363
2011-07-25 07:43:42 51°26.721 2°51.967 17.6223 4.385094 33.440538 -3.020363
2011-07-25 07:43:46 51°26.722 2°51.967 17.6219 4.385094 33.441194 -3.020363
2011-07-25 07:43:52 51°26.723 2°51.966 17.6231 4.385094 33.440538 -3.020363
2011-07-25 07:43:57 51°26.725 2°51.966 17.6248 4.385198 33.441422 -3.020363
2011-07-25 07:44:02 51°26.727 2°51.967 17.6237 4.385302 33.442963 -3.020363
2011-07-25 07:44:06 51°26.728 2°51.968 17.6218 4.385302 33.442963 -3.020363
2011-07-25 07:44:12 51°26.73 2°51.969 17.6204 4.385198 33.442079 -3.020363
2011-07-25 07:44:17 51°26.732 2°51.971 17.6213 4.385302 33.442963 -3.020363
2011-07-25 07:44:22 51°26.734 2°51.971 17.6229 4.385302 33.442963 -3.020363
2011-07-25 07:44:26 51°26.735 2°51.973 17.624 4.385302 33.442307 -3.020363
2011-07-25 07:44:32 51°26.737 2°51.974 17.6223 4.385302 33.442307 -3.020363
2011-07-25 07:44:37 51°26.739 2°51.975 17.6238 4.385302 33.44165 -3.020363
2011-07-25 07:44:42 51°26.741 2°51.977 17.6242 4.385509 33.443419 -3.020363
2011-07-25 07:44:46 51°26.742 2°51.978 17.623 4.385509 33.444076 -3.020363
2011-07-25 07:44:52 51°26.744 2°51.98 17.6223 4.385509 33.444076 -3.020363
2011-07-25 07:44:57 51°26.746 2°51.981 17.6233 4.385613 33.444961 -3.020363
2011-07-25 07:45:02 51°26.748 2°51.982 17.6239 4.385613 33.444961 -3.020363
2011-07-25 07:45:06 51°26.749 2°51.983 17.6226 4.385613 33.444304 -3.020363
2011-07-25 07:45:12 51°26.751 2°51.985 17.6234 4.385613 33.444304 -3.020363
2011-07-25 07:45:17 51°26.753 2°51.986 17.624 4.385613 33.443647 -3.020363
2011-07-25 07:45:22 51°26.754 2°51.987 17.6223 4.385509 33.443419 -3.020363
2011-07-25 07:45:26 51°26.757 2°51.988 17.627 4.385613 33.443647 -3.020363
2011-07-25 07:45:32 51°26.758 2°51.99 17.6236 4.385613 33.443647 -3.020363
2011-07-25 07:45:37 51°26.76 2°51.991 17.6248 4.385509 33.443419 -3.020363
2011-07-25 07:45:42 51°26.761 2°51.993 17.6235 4.385509 33.443419 -3.020363
2011-07-25 07:45:46 51°26.763 2°51.993 17.6236 4.385509 33.442763 -3.020363
2011-07-25 07:45:52 51°26.765 2°51.995 17.6225 4.385613 33.443647 -3.020363
2011-07-25 07:45:57 51°26.766 2°51.996 17.6223 4.385613 33.443647 -3.020363
2011-07-25 07:46:02 51°26.768 2°51.998 17.6221 4.385613 33.443647 -3.020363
2011-07-25 07:46:06 51°26.769 2°51.999 17.6235 4.385613 33.443647 -3.020363
2011-07-25 07:46:12 51°26.771 2°52 17.6235 4.385613 33.443647 -3.020363
2011-07-25 07:46:17 51°26.772 2°52.001 17.6218 4.385716 33.444532 -3.020363
2011-07-25 07:46:22 51°26.774 2°52.002 17.62 4.385716 33.444532 -3.020363
2011-07-25 07:46:26 51°26.774 2°52.003 17.6215 4.38582 33.445417 -3.020363
2011-07-25 07:46:32 51°26.775 2°52.003 17.6199 4.38582 33.445417 -3.020363
2011-07-25 07:46:37 51°26.775 2°52.005 17.6204 4.383123 33.422419 -3.020363
2011-07-25 07:46:42 51°26.776 2°52.004 17.6188 4.38582 33.445417 -3.020363
2011-07-25 07:46:46 51°26.776 2°52.005 17.6205 4.385924 33.446301 -3.020363
2011-07-25 07:46:52 51°26.776 2°52.005 17.6213 4.385924 33.446958 -3.020363
2011-07-25 07:46:57 51°26.776 2°52.005 17.6208 4.385924 33.446958 -3.020363
2011-07-25 07:47:02 51°26.776 2°52.005 17.6204 4.385924 33.446958 -3.020363
2011-07-25 07:47:06 51°26.776 2°52.004 17.6197 4.386028 33.448499 -3.020363
2011-07-25 07:47:12 51°26.775 2°52.004 17.62 4.385924 33.448271 -3.020363
2011-07-25 07:47:17 51°26.775 2°52.004 17.6213 4.386028 33.449156 -3.020363
2011-07-25 07:47:22 51°26.774 2°52.004 17.6218 4.386028 33.449812 -3.020363
2011-07-25 07:47:27 51°26.774 2°52.003 17.6195 4.386028 33.449156 -3.020363
2011-07-25 07:47:32 51°26.774 2°52.003 17.6193 4.386028 33.449156 -3.020363
2011-07-25 07:47:37 51°26.773 2°52.003 17.621 4.386028 33.449156 -3.020363
2011-07-25 07:47:42 51°26.773 2°52.003 17.6204 4.386131 33.45004 -3.020363
2011-07-25 07:47:46 51°26.773 2°52.002 17.6208 4.386131 33.45004 -3.020363
2011-07-25 07:47:52 51°26.772 2°52.002 17.6197 4.386131 33.45004 -3.020363
2011-07-25 07:47:57 51°26.772 2°52.002 17.6207 4.386131 33.45004 -3.020363
2011-07-25 07:48:02 51°26.772 2°52.002 17.6194 4.386131 33.45004 -3.020363
2011-07-25 07:48:06 51°26.771 2°52.002 17.6203 4.386235 33.450925 -3.020363
2011-07-25 07:48:12 51°26.771 2°52.001 17.6191 4.386235 33.450925 -3.020363
2011-07-25 07:48:17 51°26.771 2°52.002 17.6223 4.386235 33.450925 -3.020363
2011-07-25 07:48:22 51°26.771 2°52.001 17.6207 4.386235 33.450925 -3.020363
2011-07-25 07:48:26 51°26.771 2°52.002 17.6209 4.386235 33.450925 -3.020363
2011-07-25 07:48:32 51°26.771 2°52.001 17.6208 4.386235 33.450925 -3.020363
2011-07-25 07:48:37 51°26.77 2°52.001 17.6213 4.386235 33.451582 -3.020363
2011-07-25 07:48:42 51°26.771 2°52.001 17.6199 4.386339 33.452466 -3.020363
2011-07-25 07:48:46 51°26.771 2°52.002 17.6194 4.386339 33.452466 -3.020363
2011-07-25 07:48:52 51°26.771 2°52.001 17.621 4.386339 33.45181 -3.020363
2011-07-25 07:48:57 51°26.771 2°52.002 17.6211 4.386339 33.45181 -3.020363
2011-07-25 07:49:02 51°26.771 2°52.002 17.6198 4.386339 33.45181 -3.020363
2011-07-25 07:49:06 51°26.771 2°52.002 17.6203 4.386442 33.452038 -3.020363
2011-07-25 07:49:12 51°26.772 2°52.003 17.6211 4.386442 33.452038 -3.020363
2011-07-25 07:49:17 51°26.771 2°52.003 17.6223 4.386546 33.453579 -3.020363
2011-07-25 07:49:22 51°26.772 2°52.004 17.623 4.386546 33.453579 -3.020363
2011-07-25 07:49:26 51°26.772 2°52.004 17.6204 4.386546 33.453579 -3.020363
2011-07-25 07:49:32 51°26.772 2°52.004 17.6204 4.386546 33.453579 -3.020363
2011-07-25 07:49:37 51°26.772 2°52.005 17.6217 4.38665 33.454464 -3.020363
2011-07-25 07:49:42 51°26.773 2°52.005 17.619 4.38665 33.454464 -3.020363
2011-07-25 07:49:46 51°26.773 2°52.006 17.6208 4.38665 33.454464 -3.020363
2011-07-25 07:49:52 51°26.773 2°52.006 17.6216 4.38665 33.453807 -3.020363
2011-07-25 07:49:57 51°26.773 2°52.006 17.6203 4.38665 33.453807 -3.020363
2011-07-25 07:50:02 51°26.773 2°52.007 17.6216 4.38665 33.453807 -3.020363
2011-07-25 07:50:06 51°26.773 2°52.007 17.6205 4.38665 33.453807 -3.020363
2011-07-25 07:50:12 51°26.773 2°52.007 17.6208 4.386754 33.454691 -3.020363
2011-07-25 07:50:17 51°26.774 2°52.007 17.6221 4.386754 33.455348 -3.020363
2011-07-25 07:50:22 51°26.774 2°52.007 17.6219 4.386754 33.454691 -3.020363
2011-07-25 07:50:26 51°26.773 2°52.007 17.6183 4.386754 33.454691 -3.020363
2011-07-25 07:50:32 51°26.774 2°52.007 17.6183 4.386754 33.454691 -3.020363
2011-07-25 07:50:37 51°26.773 2°52.008 17.6201 4.386857 33.455576 -3.020363
2011-07-25 07:50:42 51°26.774 2°52.007 17.6179 4.386857 33.456233 -3.020363
2011-07-25 07:50:46 51°26.773 2°52.008 17.6192 4.386857 33.456233 -3.020363
2011-07-25 07:50:52 51°26.774 2°52.007 17.6206 4.386857 33.455576 -3.020363
2011-07-25 07:50:57 51°26.773 2°52.007 17.6205 4.386961 33.456461 -3.020363
2011-07-25 07:51:02 51°26.773 2°52.007 17.6205 4.386961 33.456461 -3.020363
2011-07-25 07:51:07 51°26.773 2°52.007 17.6192 4.386961 33.457118 -3.020363
2011-07-25 07:51:12 51°26.773 2°52.006 17.6206 4.386961 33.457774 -3.020363
2011-07-25 07:51:17 51°26.773 2°52.007 17.6198 4.386961 33.457774 -3.020363
2011-07-25 07:51:22 51°26.773 2°52.006 17.6189 4.386961 33.458431 -3.020363
2011-07-25 07:51:26 51°26.773 2°52.006 17.6198 4.386961 33.457774 -3.020363
2011-07-25 07:51:32 51°26.773 2°52.005 17.6202 4.386961 33.457774 -3.020363
2011-07-25 07:51:37 51°26.772 2°52.006 17.6196 4.386961 33.457118 -3.020363
2011-07-25 07:51:42 51°26.773 2°52.005 17.62 4.386961 33.457118 -3.020363
2011-07-25 07:51:46 51°26.772 2°52.005 17.6215 4.387065 33.458002 -3.020363
2011-07-25 07:51:52 51°26.772 2°52.004 17.6214 4.386546 33.454236 -3.020363
2011-07-25 07:51:57 51°26.772 2°52.005 17.6221 4.387065 33.458659 -3.020363
2011-07-25 07:52:02 51°26.772 2°52.004 17.6208 4.387065 33.458659 -3.020363
2011-07-25 07:52:06 51°26.772 2°52.004 17.6212 4.387065 33.458659 -3.020363
2011-07-25 07:52:12 51°26.772 2°52.004 17.6208 4.387168 33.459544 -3.020363
2011-07-25 07:52:17 51°26.772 2°52.004 17.6223 4.387065 33.458002 -3.020363
2011-07-25 07:52:22 51°26.772 2°52.004 17.6215 4.387168 33.458887 -3.020363
2011-07-25 07:52:27 51°26.772 2°52.004 17.6214 4.387272 33.459115 -3.020363
2011-07-25 07:52:32 51°26.772 2°52.004 17.6223 4.387272 33.459115 -3.020363
2011-07-25 07:52:37 51°26.772 2°52.004 17.6216 4.387272 33.459115 -3.020363
2011-07-25 07:52:42 51°26.772 2°52.004 17.6228 4.387272 33.459115 -3.020363
2011-07-25 07:52:46 51°26.772 2°52.004 17.6213 4.387272 33.459115 -3.020363
2011-07-25 07:52:52 51°26.773 2°52.004 17.6221 4.387376 33.459343 -3.020363
2011-07-25 07:52:57 51°26.773 2°52.004 17.6227 4.38748 33.460884 -3.020363
2011-07-25 07:53:02 51°26.773 2°52.004 17.6254 4.38748 33.460884 -3.020363
2011-07-25 07:53:06 51°26.773 2°52.004 17.6259 4.387583 33.461769 -3.020363
2011-07-25 07:53:12 51°26.773 2°52.004 17.6263 4.387687 33.461997 -3.020363
2011-07-25 07:53:17 51°26.773 2°52.004 17.6251 4.387687 33.461997 -3.020363
2011-07-25 07:53:22 51°26.773 2°52.004 17.6239 4.387687 33.461997 -3.020363
2011-07-25 07:53:26 51°26.773 2°52.003 17.6238 4.387687 33.461997 -3.020363
2011-07-25 07:53:32 51°26.773 2°52.004 17.6241 4.387687 33.461997 -3.020363
2011-07-25 07:53:37 51°26.773 2°52.005 17.6243 4.387687 33.46134 -3.020363
2011-07-25 07:53:42 51°26.773 2°52.004 17.6247 4.387791 33.461567 -3.020363
2011-07-25 07:53:46 51°26.773 2°52.004 17.624 4.387791 33.460911 -3.020363
2011-07-25 07:53:52 51°26.773 2°52.005 17.6263 4.387791 33.460911 -3.020363
2011-07-25 07:53:57 51°26.773 2°52.005 17.625 4.387894 33.461795 -3.020363
2011-07-25 07:54:02 51°26.773 2°52.004 17.6235 4.387894 33.461795 -3.020363
2011-07-25 07:54:06 51°26.773 2°52.005 17.6246 4.387998 33.46268 -3.020363
2011-07-25 07:54:12 51°26.773 2°52.004 17.6258 4.388102 33.463565 -3.020363
2011-07-25 07:54:17 51°26.773 2°52.006 17.6257 4.388205 33.463792 -3.020363
2011-07-25 07:54:22 51°26.773 2°52.005 17.6247 4.388205 33.463792 -3.020363
2011-07-25 07:54:26 51°26.773 2°52.006 17.6262 4.388205 33.463792 -3.020363
2011-07-25 07:54:32 51°26.773 2°52.005 17.6253 4.388205 33.463792 -3.020363
2011-07-25 07:54:37 51°26.773 2°52.005 17.6275 4.388309 33.464677 -3.020363
2011-07-25 07:54:42 51°26.773 2°52.005 17.6273 4.388309 33.464677 -3.020363